Wetterdaten: Donnerstag, 28.10.2021
Datum Zeit Temp. Aussen Temp. o. S. Temp +5cm Feuchte Auss Luftdruck Regen Sonnenschein Regendauer Solar Windben Empfang
28.10.2021 00:00 9,6 C 8,9 C 7,8 C 93 % 1022,1 hPa 0,0 l/m 0 min 0 min 0 W/m 6,4 km/h (2 Bft) 97,87 %
28.10.2021 00:02 9,6 C 8,9 C 7,8 C 93 % 1022,1 hPa 0,0 l/m 0 min 0 min 0 W/m 3,2 km/h (1 Bft) 97,22 %
28.10.2021 00:04 9,6 C 8,9 C 7,8 C 93 % 1022,1 hPa 0,0 l/m 0 min 0 min 0 W/m 6,4 km/h (2 Bft) 97,87 %
28.10.2021 00:07 9,6 C 8,9 C 7,8 C 93 % 1022,0 hPa 0,0 l/m 0 min 0 min 0 W/m 6,4 km/h (2 Bft) 100,00 %
28.10.2021 00:08 9,6 C 8,9 C 7,8 C 93 % 1022,0 hPa 0,0 l/m 0 min 0 min 0 W/m 3,2 km/h (1 Bft) 100,00 %
28.10.2021 00:10 9,5 C 8,9 C 7,8 C 93 % 1022,0 hPa 0,0 l/m 0 min 0 min 0 W/m 6,4 km/h (2 Bft) 100,00 %
28.10.2021 00:12 9,5 C 8,9 C 7,8 C 93 % 1022,0 hPa 0,0 l/m 0 min 0 min 0 W/m 3,2 km/h (1 Bft) 97,83 %
28.10.2021 00:14 9,5 C 8,9 C 7,8 C 93 % 1022,0 hPa 0,0 l/m 0 min 0 min 0 W/m 3,2 km/h (1 Bft) 97,87 %
28.10.2021 00:16 9,5 C 8,9 C 7,8 C 93 % 1021,9 hPa 0,0 l/m 0 min 0 min 0 W/m 3,2 km/h (1 Bft) 97,87 %
28.10.2021 00:18 9,5 C 8,9 C 7,8 C 93 % 1021,9 hPa 0,0 l/m 0 min 0 min 0 W/m 3,2 km/h (1 Bft) 97,87 %
28.10.2021 00:20 9,5 C 8,9 C 7,8 C 93 % 1021,9 hPa 0,0 l/m 0 min 0 min 0 W/m 3,2 km/h (1 Bft) 95,74 %
28.10.2021 00:22 9,5 C 8,9 C 7,8 C 93 % 1021,9 hPa 0,0 l/m 0 min 0 min 0 W/m 3,2 km/h (1 Bft) 97,87 %
28.10.2021 00:24 9,5 C 8,9 C 7,8 C 93 % 1021,9 hPa 0,0 l/m 0 min 0 min 0 W/m 6,4 km/h (2 Bft) 97,83 %
28.10.2021 00:26 9,5 C 8,9 C 7,8 C 93 % 1021,9 hPa 0,0 l/m 0 min 0 min 0 W/m 3,2 km/h (1 Bft) 97,87 %
28.10.2021 00:28 9,5 C 8,9 C 7,8 C 93 % 1021,9 hPa 0,0 l/m 0 min 0 min 0 W/m 6,4 km/h (2 Bft) 95,74 %
28.10.2021 00:30 9,4 C 8,9 C 7,8 C 93 % 1021,8 hPa 0,0 l/m 0 min 0 min 0 W/m 3,2 km/h (1 Bft) 97,87 %
28.10.2021 00:32 9,4 C 8,9 C 7,8 C 94 % 1021,8 hPa 0,0 l/m 0 min 0 min 0 W/m 12,9 km/h (3 Bft) 97,87 %
28.10.2021 00:34 9,4 C 8,9 C 7,8 C 94 % 1021,8 hPa 0,0 l/m 0 min 0 min 0 W/m 6,4 km/h (2 Bft) 95,74 %
28.10.2021 00:36 9,4 C 8,9 C 7,8 C 94 % 1021,8 hPa 0,0 l/m 0 min 0 min 0 W/m 12,9 km/h (3 Bft) 95,65 %
28.10.2021 00:38 9,4 C 8,9 C 7,8 C 94 % 1021,8 hPa 0,0 l/m 0 min 0 min 0 W/m 6,4 km/h (2 Bft) 93,62 %
28.10.2021 00:40 9,4 C 8,9 C 7,8 C 94 % 1021,8 hPa 0,0 l/m 0 min 0 min 0 W/m 6,4 km/h (2 Bft) 95,74 %
28.10.2021 00:42 9,4 C 8,9 C 7,8 C 94 % 1021,8 hPa 0,0 l/m 0 min 0 min 0 W/m 12,9 km/h (3 Bft) 93,62 %
28.10.2021 00:44 9,4 C 8,9 C 7,8 C 94 % 1021,8 hPa 0,0 l/m 0 min 0 min 0 W/m 3,2 km/h (1 Bft) 95,74 %
28.10.2021 00:46 9,4 C 8,9 C 7,8 C 94 % 1021,8 hPa 0,0 l/m 0 min 0 min 0 W/m 6,4 km/h (2 Bft) 95,74 %
28.10.2021 00:48 9,4 C 8,9 C 7,8 C 94 % 1021,8 hPa 0,0 l/m 0 min 0 min 0 W/m 6,4 km/h (2 Bft) 95,65 %
28.10.2021 00:50 9,4 C 8,9 C 7,8 C 94 % 1021,8 hPa 0,0 l/m 0 min 0 min 0 W/m 3,2 km/h (1 Bft) 93,62 %
28.10.2021 00:52 9,4 C 8,9 C 7,8 C 94 % 1021,7 hPa 0,0 l/m 0 min 0 min 0 W/m 6,4 km/h (2 Bft) 95,74 %
28.10.2021 00:54 9,4 C 8,9 C 7,8 C 94 % 1021,7 hPa 0,0 l/m 0 min 0 min 0 W/m 6,4 km/h (2 Bft) 93,62 %
28.10.2021 00:56 9,3 C 8,3 C 7,8 C 94 % 1021,6 hPa 0,0 l/m 0 min 0 min 0 W/m 12,9 km/h (3 Bft) 95,74 %
28.10.2021 00:58 9,3 C 8,3 C 7,8 C 94 % 1021,6 hPa 0,0 l/m 0 min 0 min 0 W/m 6,4 km/h (2 Bft) 97,87 %
28.10.2021 01:00 9,3 C 8,3 C 7,8 C 94 % 1021,6 hPa 0,0 l/m 0 min 0 min 0 W/m 12,9 km/h (3 Bft) 97,83 %
28.10.2021 01:02 9,3 C 8,3 C 7,8 C 94 % 1021,6 hPa 0,0 l/m 0 min 0 min 0 W/m 12,9 km/h (3 Bft) 100,00 %
28.10.2021 01:04 9,3 C 8,3 C 7,8 C 94 % 1021,6 hPa 0,0 l/m 0 min 0 min 0 W/m 16,1 km/h (3 Bft) 100,00 %
28.10.2021 01:06 9,3 C 8,3 C 7,8 C 94 % 1021,6 hPa 0,0 l/m 0 min 0 min 0 W/m 12,9 km/h (3 Bft) 100,00 %
28.10.2021 01:08 9,3 C 8,3 C 7,8 C 94 % 1021,5 hPa 0,0 l/m 0 min 0 min 0 W/m 6,4 km/h (2 Bft) 100,00 %
28.10.2021 01:10 9,3 C 8,3 C 7,8 C 94 % 1021,5 hPa 0,0 l/m 0 min 0 min 0 W/m 6,4 km/h (2 Bft) 100,00 %
28.10.2021 01:12 9,3 C 8,3 C 7,8 C 94 % 1021,5 hPa 0,0 l/m 0 min 0 min 0 W/m 12,9 km/h (3 Bft) 97,83 %
28.10.2021 01:14 9,3 C 8,3 C 7,8 C 94 % 1021,5 hPa 0,0 l/m 0 min 0 min 0 W/m 6,4 km/h (2 Bft) 100,00 %
28.10.2021 01:16 9,3 C 8,3 C 7,8 C 94 % 1021,6 hPa 0,0 l/m 0 min 0 min 0 W/m 6,4 km/h (2 Bft) 100,00 %
28.10.2021 01:18 9,3 C 8,3 C 7,8 C 94 % 1021,5 hPa 0,0 l/m 0 min 0 min 0 W/m 6,4 km/h (2 Bft) 100,00 %
28.10.2021 01:20 9,3 C 8,3 C 7,8 C 94 % 1021,5 hPa 0,0 l/m 0 min 0 min 0 W/m 6,4 km/h (2 Bft) 97,87 %
28.10.2021 01:22 9,3 C 8,3 C 7,8 C 94 % 1021,5 hPa 0,0 l/m 0 min 0 min 0 W/m 6,4 km/h (2 Bft) 100,00 %
28.10.2021 01:24 9,2 C 8,3 C 7,8 C 94 % 1021,5 hPa 0,0 l/m 0 min 0 min 0 W/m 16,1 km/h (3 Bft) 100,00 %
28.10.2021 01:26 9,2 C 8,3 C 7,8 C 94 % 1021,5 hPa 0,0 l/m 0 min 0 min 0 W/m 12,9 km/h (3 Bft) 100,00 %
28.10.2021 01:28 9,2 C 8,3 C 7,8 C 94 % 1021,4 hPa 0,0 l/m 0 min 0 min 0 W/m 12,9 km/h (3 Bft) 100,00 %
28.10.2021 01:30 9,3 C 8,9 C 7,8 C 94 % 1021,4 hPa 0,0 l/m 0 min 0 min 0 W/m 19,3 km/h (3 Bft) 100,00 %
28.10.2021 01:32 9,3 C 8,9 C 7,8 C 94 % 1021,4 hPa 0,0 l/m 0 min 0 min 0 W/m 12,9 km/h (3 Bft) 97,87 %
28.10.2021 01:34 9,3 C 8,3 C 7,8 C 94 % 1021,4 hPa 0,0 l/m 0 min 0 min 0 W/m 9,7 km/h (2 Bft) 100,00 %
28.10.2021 01:36 9,2 C 8,3 C 7,8 C 94 % 1021,3 hPa 0,0 l/m 0 min 0 min 0 W/m 6,4 km/h (2 Bft) 100,00 %
28.10.2021 01:38 9,2 C 8,3 C 7,8 C 95 % 1021,3 hPa 0,0 l/m 0 min 0 min 0 W/m 9,7 km/h (2 Bft) 100,00 %
28.10.2021 01:40 9,2 C 8,3 C 7,8 C 95 % 1021,3 hPa 0,0 l/m 0 min 0 min 0 W/m 6,4 km/h (2 Bft) 100,00 %
28.10.2021 01:42 9,2 C 8,3 C 7,8 C 95 % 1021,3 hPa 0,0 l/m 0 min 0 min 0 W/m 16,1 km/h (3 Bft) 100,00 %
28.10.2021 01:44 9,1 C 8,3 C 7,8 C 95 % 1021,3 hPa 0,0 l/m 0 min 0 min 0 W/m 6,4 km/h (2 Bft) 100,00 %
28.10.2021 01:46 9,1 C 8,3 C 7,8 C 95 % 1021,3 hPa 0,0 l/m 0 min 0 min 0 W/m 12,9 km/h (3 Bft) 97,83 %
28.10.2021 01:48 9,1 C 8,3 C 7,8 C 95 % 1021,2 hPa 0,0 l/m 0 min 0 min 0 W/m 12,9 km/h (3 Bft) 100,00 %
28.10.2021 01:50 9,1 C 8,3 C 7,8 C 95 % 1021,2 hPa 0,0 l/m 0 min 0 min 0 W/m 6,4 km/h (2 Bft) 100,00 %
28.10.2021 01:52 9,1 C 8,3 C 7,8 C 94 % 1021,2 hPa 0,0 l/m 0 min 0 min 0 W/m 16,1 km/h (3 Bft) 100,00 %
28.10.2021 01:54 9,1 C 8,3 C 7,8 C 94 % 1021,3 hPa 0,0 l/m 0 min 0 min 0 W/m 6,4 km/h (2 Bft) 100,00 %
28.10.2021 01:56 9,1 C 8,3 C 7,8 C 94 % 1021,3 hPa 0,0 l/m 0 min 0 min 0 W/m 6,4 km/h (2 Bft) 100,00 %
28.10.2021 01:58 9,1 C 8,3 C 7,8 C 95 % 1021,2 hPa 0,0 l/m 0 min 0 min 0 W/m 16,1 km/h (3 Bft) 100,00 %
28.10.2021 02:00 9,0 C 8,3 C 7,8 C 95 % 1021,2 hPa 0,0 l/m 0 min 0 min 0 W/m 12,9 km/h (3 Bft) 97,87 %
28.10.2021 02:02 9,0 C 8,3 C 7,8 C 95 % 1021,3 hPa 0,0 l/m 0 min 0 min 0 W/m 9,7 km/h (2 Bft) 100,00 %
28.10.2021 02:04 9,0 C 8,3 C 7,8 C 95 % 1021,2 hPa 0,0 l/m 0 min 0 min 0 W/m 16,1 km/h (3 Bft) 97,22 %
28.10.2021 02:06 9,0 C 8,3 C 7,8 C 95 % 1021,2 hPa 0,0 l/m 0 min 0 min 0 W/m 12,9 km/h (3 Bft) 98,31 %
28.10.2021 02:08 9,0 C 8,3 C 7,8 C 95 % 1021,2 hPa 0,0 l/m 0 min 0 min 0 W/m 3,2 km/h (1 Bft) 100,00 %
28.10.2021 02:10 9,0 C 8,3 C 7,8 C 95 % 1021,2 hPa 0,0 l/m 0 min 0 min 0 W/m 6,4 km/h (2 Bft) 97,83 %
28.10.2021 02:12 9,0 C 8,3 C 7,8 C 95 % 1021,2 hPa 0,0 l/m 0 min 0 min 0 W/m 6,4 km/h (2 Bft) 93,62 %
28.10.2021 02:14 9,0 C 8,3 C 7,8 C 95 % 1021,2 hPa 0,0 l/m 0 min 0 min 0 W/m 12,9 km/h (3 Bft) 95,74 %
28.10.2021 02:16 9,0 C 8,3 C 7,8 C 95 % 1021,2 hPa 0,0 l/m 0 min 0 min 0 W/m 12,9 km/h (3 Bft) 97,87 %
28.10.2021 02:18 8,9 C 8,3 C 7,8 C 95 % 1021,2 hPa 0,0 l/m 0 min 0 min 0 W/m 12,9 km/h (3 Bft) 97,87 %
28.10.2021 02:20 8,9 C 8,3 C 7,8 C 95 % 1021,3 hPa 0,0 l/m 0 min 0 min 0 W/m 6,4 km/h (2 Bft) 95,74 %
28.10.2021 02:22 8,9 C 8,3 C 7,8 C 95 % 1021,3 hPa 0,0 l/m 0 min 0 min 0 W/m 6,4 km/h (2 Bft) 93,48 %
28.10.2021 02:24 8,9 C 8,3 C 7,8 C 95 % 1021,2 hPa 0,0 l/m 0 min 0 min 0 W/m 12,9 km/h (3 Bft) 95,74 %
28.10.2021 02:26 8,9 C 8,3 C 7,3 C 95 % 1021,2 hPa 0,0 l/m 0 min 0 min 0 W/m 6,4 km/h (2 Bft) 95,74 %
28.10.2021 02:28 8,8 C 8,3 C 7,3 C 95 % 1021,2 hPa 0,0 l/m 0 min 0 min 0 W/m 6,4 km/h (2 Bft) 93,62 %
28.10.2021 02:30 8,8 C 8,3 C 7,3 C 95 % 1021,2 hPa 0,0 l/m 0 min 0 min 0 W/m 6,4 km/h (2 Bft) 91,49 %
28.10.2021 02:32 8,8 C 8,3 C 7,3 C 95 % 1021,2 hPa 0,0 l/m 0 min 0 min 0 W/m 12,9 km/h (3 Bft) 95,65 %
28.10.2021 02:34 8,8 C 8,3 C 7,3 C 95 % 1021,1 hPa 0,0 l/m 0 min 0 min 0 W/m 6,4 km/h (2 Bft) 95,74 %
28.10.2021 02:36 8,8 C 7,8 C 7,3 C 95 % 1021,2 hPa 0,0 l/m 0 min 0 min 0 W/m 6,4 km/h (2 Bft) 97,87 %
28.10.2021 02:38 8,8 C 7,8 C 7,3 C 95 % 1021,1 hPa 0,0 l/m 0 min 0 min 0 W/m 6,4 km/h (2 Bft) 95,74 %
28.10.2021 02:40 8,8 C 7,8 C 7,3 C 95 % 1021,2 hPa 0,0 l/m 0 min 0 min 0 W/m 12,9 km/h (3 Bft) 93,62 %
28.10.2021 02:42 8,8 C 7,8 C 7,3 C 95 % 1021,2 hPa 0,0 l/m 0 min 0 min 0 W/m 16,1 km/h (3 Bft) 93,62 %
28.10.2021 02:44 8,8 C 7,8 C 7,3 C 95 % 1021,1 hPa 0,0 l/m 0 min 0 min 0 W/m 16,1 km/h (3 Bft) 93,48 %
28.10.2021 02:46 8,8 C 7,8 C 7,3 C 95 % 1021,1 hPa 0,0 l/m 0 min 0 min 0 W/m 12,9 km/h (3 Bft) 91,49 %
28.10.2021 02:48 8,8 C 7,8 C 7,3 C 95 % 1021,1 hPa 0,0 l/m 0 min 0 min 0 W/m 9,7 km/h (2 Bft) 91,49 %
28.10.2021 02:50 8,7 C 7,8 C 7,3 C 95 % 1021,1 hPa 0,0 l/m 0 min 0 min 0 W/m 12,9 km/h (3 Bft) 93,62 %
28.10.2021 02:52 8,7 C 7,8 C 7,3 C 95 % 1021,1 hPa 0,0 l/m 0 min 0 min 0 W/m 12,9 km/h (3 Bft) 95,74 %
28.10.2021 02:54 8,7 C 7,8 C 7,3 C 95 % 1021,0 hPa 0,0 l/m 0 min 0 min 0 W/m 6,4 km/h (2 Bft) 93,62 %
28.10.2021 02:56 8,6 C 7,8 C 7,3 C 95 % 1021,0 hPa 0,0 l/m 0 min 0 min 0 W/m 12,9 km/h (3 Bft) 95,65 %
28.10.2021 02:58 8,6 C 7,8 C 7,3 C 95 % 1021,1 hPa 0,0 l/m 0 min 0 min 0 W/m 6,4 km/h (2 Bft) 95,74 %
28.10.2021 03:00 8,6 C 7,8 C 7,3 C 95 % 1021,1 hPa 0,0 l/m 0 min 0 min 0 W/m 6,4 km/h (2 Bft) 95,74 %
28.10.2021 03:02 8,6 C 7,8 C 7,3 C 95 % 1021,0 hPa 0,0 l/m 0 min 0 min 0 W/m 6,4 km/h (2 Bft) 95,74 %
28.10.2021 03:04 8,6 C 7,8 C 7,3 C 95 % 1021,1 hPa 0,0 l/m 0 min 0 min 0 W/m 6,4 km/h (2 Bft) 95,74 %
28.10.2021 03:06 8,6 C 7,8 C 7,3 C 95 % 1021,0 hPa 0,0 l/m 0 min 0 min 0 W/m 12,9 km/h (3 Bft) 97,87 %
28.10.2021 03:08 8,6 C 7,8 C 7,3 C 95 % 1021,0 hPa 0,0 l/m 0 min 0 min 0 W/m 16,1 km/h (3 Bft) 95,65 %
28.10.2021 03:10 8,6 C 7,8 C 7,3 C 95 % 1021,0 hPa 0,0 l/m 0 min 0 min 0 W/m 12,9 km/h (3 Bft) 97,87 %
28.10.2021 03:12 8,6 C 7,8 C 7,3 C 95 % 1021,0 hPa 0,0 l/m 0 min 0 min 0 W/m 12,9 km/h (3 Bft) 97,87 %
28.10.2021 03:14 8,6 C 7,8 C 7,3 C 95 % 1021,0 hPa 0,0 l/m 0 min 0 min 0 W/m 12,9 km/h (3 Bft) 97,87 %
28.10.2021 03:16 8,6 C 7,8 C 7,3 C 95 % 1021,0 hPa 0,2 l/m 0 min 0 min 0 W/m 12,9 km/h (3 Bft) 97,87 %
28.10.2021 03:18 8,6 C 7,8 C 7,3 C 95 % 1021,0 hPa 0,0 l/m 0 min 0 min 0 W/m 12,9 km/h (3 Bft) 97,87 %
28.10.2021 03:20 8,5 C 7,8 C 7,3 C 95 % 1021,0 hPa 0,0 l/m 0 min 0 min 0 W/m 6,4 km/h (2 Bft) 97,83 %
28.10.2021 03:22 8,5 C 7,8 C 7,3 C 95 % 1021,0 hPa 0,0 l/m 0 min 0 min 0 W/m 12,9 km/h (3 Bft) 100,00 %
28.10.2021 03:24 8,5 C 7,8 C 7,3 C 95 % 1020,9 hPa 0,0 l/m 0 min 0 min 0 W/m 6,4 km/h (2 Bft) 100,00 %
28.10.2021 03:26 8,5 C 7,8 C 7,3 C 95 % 1020,9 hPa 0,0 l/m 0 min 0 min 0 W/m 6,4 km/h (2 Bft) 100,00 %
28.10.2021 03:28 8,5 C 7,8 C 7,3 C 95 % 1020,9 hPa 0,0 l/m 0 min 0 min 0 W/m 6,4 km/h (2 Bft) 100,00 %
28.10.2021 03:30 8,5 C 7,8 C 7,3 C 95 % 1020,9 hPa 0,0 l/m 0 min 0 min 0 W/m 6,4 km/h (2 Bft) 100,00 %
28.10.2021 03:32 8,5 C 7,8 C 7,3 C 95 % 1020,9 hPa 0,0 l/m 0 min 0 min 0 W/m 3,2 km/h (1 Bft) 97,83 %
28.10.2021 03:34 8,5 C 7,8 C 7,3 C 95 % 1020,9 hPa 0,0 l/m 0 min 0 min 0 W/m 6,4 km/h (2 Bft) 100,00 %
28.10.2021 03:36 8,5 C 7,8 C 7,3 C 95 % 1020,9 hPa 0,0 l/m 0 min 0 min 0 W/m 6,4 km/h (2 Bft) 97,87 %
28.10.2021 03:38 8,4 C 7,8 C 7,3 C 95 % 1020,8 hPa 0,0 l/m 0 min 0 min 0 W/m 12,9 km/h (3 Bft) 100,00 %
28.10.2021 03:40 8,4 C 7,8 C 7,3 C 95 % 1020,9 hPa 0,0 l/m 0 min 0 min 0 W/m 6,4 km/h (2 Bft) 100,00 %
28.10.2021 03:42 8,4 C 7,8 C 7,3 C 95 % 1020,9 hPa 0,0 l/m 0 min 0 min 0 W/m 12,9 km/h (3 Bft) 100,00 %
28.10.2021 03:44 8,4 C 7,8 C 7,3 C 95 % 1020,9 hPa 0,0 l/m 0 min 0 min 0 W/m 12,9 km/h (3 Bft) 97,83 %
28.10.2021 03:46 8,4 C 7,8 C 7,3 C 95 % 1020,9 hPa 0,0 l/m 0 min 0 min 0 W/m 6,4 km/h (2 Bft) 100,00 %
28.10.2021 03:48 8,4 C 7,8 C 7,3 C 95 % 1020,8 hPa 0,0 l/m 0 min 0 min 0 W/m 3,2 km/h (1 Bft) 100,00 %
28.10.2021 03:50 8,4 C 7,8 C 7,3 C 95 % 1020,8 hPa 0,0 l/m 0 min 0 min 0 W/m 9,7 km/h (2 Bft) 100,00 %
28.10.2021 03:52 8,4 C 7,8 C 7,3 C 95 % 1020,8 hPa 0,0 l/m 0 min 0 min 0 W/m 12,9 km/h (3 Bft) 100,00 %
28.10.2021 03:54 8,4 C 7,8 C 7,3 C 95 % 1020,8 hPa 0,0 l/m 0 min 0 min 0 W/m 6,4 km/h (2 Bft) 100,00 %
28.10.2021 03:56 8,3 C 7,8 C 7,3 C 95 % 1020,8 hPa 0,0 l/m 0 min 0 min 0 W/m 6,4 km/h (2 Bft) 100,00 %
28.10.2021 03:58 8,3 C 7,8 C 7,3 C 95 % 1020,8 hPa 0,0 l/m 0 min 0 min 0 W/m 6,4 km/h (2 Bft) 100,00 %
28.10.2021 04:00 8,3 C 7,8 C 7,3 C 95 % 1020,8 hPa 0,0 l/m 0 min 0 min 0 W/m 6,4 km/h (2 Bft) 97,87 %
28.10.2021 04:05 8,3 C 7,8 C 7,3 C 96 % 1020,8 hPa 0,0 l/m 0 min 0 min 0 W/m 12,9 km/h (3 Bft) 98,39 %
28.10.2021 04:06 8,3 C 7,8 C 7,3 C 96 % 1020,8 hPa 0,0 l/m 0 min 0 min 0 W/m 6,4 km/h (2 Bft) 100,00 %
28.10.2021 04:08 8,3 C 7,8 C 7,3 C 96 % 1020,7 hPa 0,0 l/m 0 min 0 min 0 W/m 12,9 km/h (3 Bft) 97,83 %
28.10.2021 04:10 8,3 C 7,8 C 7,3 C 96 % 1020,7 hPa 0,0 l/m 0 min 0 min 0 W/m 6,4 km/h (2 Bft) 97,87 %
28.10.2021 04:12 8,3 C 7,8 C 7,3 C 96 % 1020,7 hPa 0,0 l/m 0 min 0 min 0 W/m 12,9 km/h (3 Bft) 97,87 %
28.10.2021 04:14 8,3 C 7,8 C 7,3 C 96 % 1020,7 hPa 0,0 l/m 0 min 0 min 0 W/m 12,9 km/h (3 Bft) 97,87 %
28.10.2021 04:16 8,3 C 7,8 C 7,3 C 96 % 1020,7 hPa 0,0 l/m 0 min 0 min 0 W/m 6,4 km/h (2 Bft) 97,87 %
28.10.2021 04:18 8,3 C 7,8 C 7,3 C 96 % 1020,7 hPa 0,0 l/m 0 min 0 min 0 W/m 12,9 km/h (3 Bft) 97,87 %
28.10.2021 04:20 8,3 C 7,8 C 7,3 C 96 % 1020,6 hPa 0,0 l/m 0 min 0 min 0 W/m 6,4 km/h (2 Bft) 97,83 %
28.10.2021 04:22 8,3 C 7,8 C 7,3 C 96 % 1020,6 hPa 0,0 l/m 0 min 0 min 0 W/m 6,4 km/h (2 Bft) 93,62 %
28.10.2021 04:24 8,3 C 7,8 C 7,3 C 96 % 1020,6 hPa 0,0 l/m 0 min 0 min 0 W/m 6,4 km/h (2 Bft) 97,87 %
28.10.2021 04:26 8,3 C 7,8 C 7,3 C 96 % 1020,6 hPa 0,0 l/m 0 min 0 min 0 W/m 12,9 km/h (3 Bft) 97,87 %
28.10.2021 04:28 8,3 C 7,8 C 7,3 C 96 % 1020,6 hPa 0,0 l/m 0 min 0 min 0 W/m 6,4 km/h (2 Bft) 97,87 %
28.10.2021 04:30 8,2 C 7,8 C 7,3 C 96 % 1020,6 hPa 0,0 l/m 0 min 0 min 0 W/m 6,4 km/h (2 Bft) 95,74 %
28.10.2021 04:32 8,2 C 7,8 C 7,3 C 96 % 1020,6 hPa 0,0 l/m 0 min 0 min 0 W/m 6,4 km/h (2 Bft) 97,83 %
28.10.2021 04:34 8,2 C 7,8 C 7,3 C 96 % 1020,5 hPa 0,0 l/m 0 min 0 min 0 W/m 3,2 km/h (1 Bft) 97,87 %
28.10.2021 04:36 8,2 C 7,2 C 7,3 C 96 % 1020,5 hPa 0,0 l/m 0 min 0 min 0 W/m 3,2 km/h (1 Bft) 97,87 %
28.10.2021 04:38 8,2 C 7,2 C 7,3 C 96 % 1020,5 hPa 0,0 l/m 0 min 0 min 0 W/m 6,4 km/h (2 Bft) 100,00 %
28.10.2021 04:40 8,1 C 7,2 C 7,3 C 96 % 1020,5 hPa 0,0 l/m 0 min 0 min 0 W/m 6,4 km/h (2 Bft) 100,00 %
28.10.2021 04:42 8,1 C 7,2 C 7,3 C 96 % 1020,5 hPa 0,0 l/m 0 min 0 min 0 W/m 6,4 km/h (2 Bft) 97,83 %
28.10.2021 04:44 8,1 C 7,2 C 7,3 C 96 % 1020,4 hPa 0,0 l/m 0 min 0 min 0 W/m 6,4 km/h (2 Bft) 100,00 %
28.10.2021 04:46 8,1 C 7,2 C 7,3 C 96 % 1020,4 hPa 0,0 l/m 0 min 0 min 0 W/m 6,4 km/h (2 Bft) 100,00 %
28.10.2021 04:48 8,1 C 7,2 C 7,3 C 96 % 1020,4 hPa 0,0 l/m 0 min 0 min 0 W/m 6,4 km/h (2 Bft) 97,87 %
28.10.2021 04:50 8,1 C 7,2 C 7,3 C 96 % 1020,4 hPa 0,0 l/m 0 min 0 min 0 W/m 12,9 km/h (3 Bft) 100,00 %
28.10.2021 04:52 8,1 C 7,2 C 7,3 C 96 % 1020,4 hPa 0,0 l/m 0 min 0 min 0 W/m 3,2 km/h (1 Bft) 100,00 %
28.10.2021 04:54 8,1 C 7,2 C 7,3 C 96 % 1020,3 hPa 0,0 l/m 0 min 0 min 0 W/m 6,4 km/h (2 Bft) 100,00 %
28.10.2021 04:56 8,1 C 7,2 C 7,3 C 96 % 1020,3 hPa 0,0 l/m 0 min 0 min 0 W/m 6,4 km/h (2 Bft) 100,00 %
28.10.2021 04:58 8,1 C 7,2 C 7,3 C 96 % 1020,3 hPa 0,0 l/m 0 min 0 min 0 W/m 6,4 km/h (2 Bft) 97,87 %
28.10.2021 05:00 8,0 C 7,2 C 7,3 C 96 % 1020,1 hPa 0,0 l/m 0 min 0 min 0 W/m 3,2 km/h (1 Bft) 100,00 %
28.10.2021 05:02 8,1 C 7,2 C 7,3 C 96 % 1020,2 hPa 0,0 l/m 0 min 0 min 0 W/m 6,4 km/h (2 Bft) 97,87 %
28.10.2021 05:04 8,0 C 7,2 C 7,3 C 96 % 1020,1 hPa 0,0 l/m 0 min 0 min 0 W/m 6,4 km/h (2 Bft) 97,87 %
28.10.2021 05:06 8,0 C 7,2 C 7,3 C 96 % 1020,1 hPa 0,0 l/m 0 min 0 min 0 W/m 3,2 km/h (1 Bft) 96,15 %
28.10.2021 05:08 8,0 C 7,2 C 7,3 C 96 % 1020,1 hPa 0,0 l/m 0 min 0 min 0 W/m 3,2 km/h (1 Bft) 97,87 %
28.10.2021 05:10 8,0 C 7,2 C 7,3 C 96 % 1020,1 hPa 0,0 l/m 0 min 0 min 0 W/m 3,2 km/h (1 Bft) 97,87 %
28.10.2021 05:12 8,0 C 7,2 C 7,3 C 96 % 1020,1 hPa 0,0 l/m 0 min 0 min 0 W/m 6,4 km/h (2 Bft) 97,87 %
28.10.2021 05:14 8,0 C 7,2 C 7,3 C 96 % 1020,1 hPa 0,0 l/m 0 min 0 min 0 W/m 6,4 km/h (2 Bft) 97,87 %
28.10.2021 05:16 8,0 C 7,2 C 7,3 C 96 % 1020,1 hPa 0,0 l/m 0 min 0 min 0 W/m 6,4 km/h (2 Bft) 97,87 %
28.10.2021 05:18 8,0 C 7,2 C 7,3 C 96 % 1020,1 hPa 0,0 l/m 0 min 0 min 0 W/m 6,4 km/h (2 Bft) 97,83 %
28.10.2021 05:20 8,0 C 7,2 C 7,3 C 96 % 1020,1 hPa 0,0 l/m 0 min 0 min 0 W/m 9,7 km/h (2 Bft) 93,62 %
28.10.2021 05:22 8,0 C 7,2 C 7,3 C 96 % 1020,1 hPa 0,0 l/m 0 min 0 min 0 W/m 6,4 km/h (2 Bft) 95,74 %
28.10.2021 05:24 8,0 C 7,2 C 7,3 C 96 % 1020,0 hPa 0,0 l/m 0 min 0 min 0 W/m 6,4 km/h (2 Bft) 93,62 %
28.10.2021 05:26 8,0 C 7,2 C 7,3 C 96 % 1020,1 hPa 0,0 l/m 0 min 0 min 0 W/m 6,4 km/h (2 Bft) 95,74 %
28.10.2021 05:28 8,0 C 7,2 C 7,3 C 96 % 1020,0 hPa 0,0 l/m 0 min 0 min 0 W/m 6,4 km/h (2 Bft) 95,74 %
28.10.2021 05:30 8,0 C 7,2 C 7,3 C 96 % 1020,0 hPa 0,0 l/m 0 min 0 min 0 W/m 12,9 km/h (3 Bft) 95,65 %
28.10.2021 05:32 8,0 C 7,2 C 7,3 C 96 % 1020,0 hPa 0,0 l/m 0 min 0 min 0 W/m 6,4 km/h (2 Bft) 95,74 %
28.10.2021 05:34 8,0 C 7,2 C 7,3 C 96 % 1019,9 hPa 0,0 l/m 0 min 0 min 0 W/m 9,7 km/h (2 Bft) 95,74 %
28.10.2021 05:36 8,0 C 7,2 C 7,3 C 96 % 1019,9 hPa 0,0 l/m 0 min 0 min 0 W/m 3,2 km/h (1 Bft) 93,62 %
28.10.2021 05:38 8,0 C 7,2 C 7,3 C 96 % 1019,9 hPa 0,0 l/m 0 min 0 min 0 W/m 16,1 km/h (3 Bft) 93,62 %
28.10.2021 05:40 8,0 C 7,2 C 7,3 C 96 % 1019,9 hPa 0,0 l/m 0 min 0 min 0 W/m 16,1 km/h (3 Bft) 97,87 %
28.10.2021 05:42 8,0 C 7,2 C 7,3 C 96 % 1019,8 hPa 0,0 l/m 0 min 0 min 0 W/m 12,9 km/h (3 Bft) 95,65 %
28.10.2021 05:44 8,0 C 7,2 C 7,3 C 96 % 1019,8 hPa 0,0 l/m 0 min 0 min 0 W/m 16,1 km/h (3 Bft) 97,87 %
28.10.2021 05:46 8,0 C 7,2 C 7,3 C 96 % 1019,8 hPa 0,0 l/m 0 min 0 min 0 W/m 12,9 km/h (3 Bft) 97,87 %
28.10.2021 05:48 8,0 C 7,2 C 7,3 C 96 % 1019,8 hPa 0,0 l/m 0 min 0 min 0 W/m 12,9 km/h (3 Bft) 95,74 %
28.10.2021 05:50 8,0 C 7,2 C 7,3 C 96 % 1019,8 hPa 0,0 l/m 0 min 0 min 0 W/m 16,1 km/h (3 Bft) 97,87 %
28.10.2021 05:52 8,0 C 7,2 C 7,3 C 96 % 1019,7 hPa 0,0 l/m 0 min 0 min 0 W/m 12,9 km/h (3 Bft) 97,87 %
28.10.2021 05:54 8,1 C 7,8 C 7,3 C 96 % 1019,7 hPa 0,0 l/m 0 min 0 min 0 W/m 9,7 km/h (2 Bft) 95,65 %
28.10.2021 05:56 8,1 C 7,8 C 7,3 C 96 % 1019,7 hPa 0,0 l/m 0 min 0 min 0 W/m 12,9 km/h (3 Bft) 97,87 %
28.10.2021 05:58 8,1 C 7,8 C 7,3 C 96 % 1019,7 hPa 0,0 l/m 0 min 0 min 0 W/m 6,4 km/h (2 Bft) 95,74 %
28.10.2021 06:00 8,1 C 7,8 C 7,3 C 96 % 1019,8 hPa 0,0 l/m 0 min 0 min 0 W/m 16,1 km/h (3 Bft) 95,74 %
28.10.2021 06:02 8,2 C 7,8 C 7,3 C 96 % 1019,7 hPa 0,0 l/m 0 min 0 min 0 W/m 12,9 km/h (3 Bft) 93,62 %
28.10.2021 06:04 8,2 C 7,8 C 7,3 C 96 % 1019,7 hPa 0,0 l/m 0 min 0 min 0 W/m 6,4 km/h (2 Bft) 95,24 %
28.10.2021 06:08 8,2 C 7,8 C 7,3 C 97 % 1019,7 hPa 0,0 l/m 0 min 0 min 0 W/m 16,1 km/h (3 Bft) 92,47 %
28.10.2021 06:10 8,3 C 7,8 C 7,3 C 97 % 1019,7 hPa 0,0 l/m 0 min 0 min 0 W/m 6,4 km/h (2 Bft) 95,74 %
28.10.2021 06:12 8,3 C 7,8 C 7,3 C 97 % 1019,6 hPa 0,0 l/m 0 min 0 min 0 W/m 9,7 km/h (2 Bft) 97,87 %
28.10.2021 06:14 8,3 C 7,8 C 7,3 C 96 % 1019,7 hPa 0,0 l/m 0 min 0 min 0 W/m 12,9 km/h (3 Bft) 97,87 %
28.10.2021 06:16 8,3 C 7,8 C 7,3 C 97 % 1019,6 hPa 0,0 l/m 0 min 0 min 0 W/m 12,9 km/h (3 Bft) 95,74 %
28.10.2021 06:18 8,3 C 7,8 C 7,3 C 97 % 1019,7 hPa 0,0 l/m 0 min 0 min 0 W/m 6,4 km/h (2 Bft) 97,83 %
28.10.2021 06:20 8,3 C 7,8 C 7,3 C 97 % 1019,7 hPa 0,0 l/m 0 min 0 min 0 W/m 6,4 km/h (2 Bft) 97,87 %
28.10.2021 06:22 8,3 C 7,8 C 7,3 C 97 % 1019,6 hPa 0,0 l/m 0 min 0 min 0 W/m 12,9 km/h (3 Bft) 97,87 %
28.10.2021 06:24 8,3 C 7,8 C 7,3 C 97 % 1019,6 hPa 0,0 l/m 0 min 0 min 0 W/m 12,9 km/h (3 Bft) 97,87 %
28.10.2021 06:26 8,3 C 7,8 C 7,3 C 97 % 1019,6 hPa 0,0 l/m 0 min 0 min 0 W/m 12,9 km/h (3 Bft) 95,74 %
28.10.2021 06:28 8,3 C 7,8 C 7,3 C 97 % 1019,5 hPa 0,0 l/m 0 min 0 min 0 W/m 12,9 km/h (3 Bft) 100,00 %
28.10.2021 06:30 8,3 C 7,8 C 7,3 C 97 % 1019,6 hPa 0,0 l/m 0 min 0 min 0 W/m 12,9 km/h (3 Bft) 97,83 %
28.10.2021 06:32 8,3 C 7,8 C 7,3 C 97 % 1019,5 hPa 0,0 l/m 0 min 0 min 0 W/m 12,9 km/h (3 Bft) 100,00 %
28.10.2021 06:34 8,3 C 7,8 C 7,3 C 97 % 1019,6 hPa 0,0 l/m 0 min 0 min 0 W/m 12,9 km/h (3 Bft) 100,00 %
28.10.2021 06:36 8,3 C 7,8 C 7,3 C 97 % 1019,5 hPa 0,0 l/m 0 min 0 min 0 W/m 6,4 km/h (2 Bft) 100,00 %
28.10.2021 06:38 8,3 C 7,8 C 7,3 C 97 % 1019,5 hPa 0,0 l/m 0 min 0 min 0 W/m 6,4 km/h (2 Bft) 100,00 %
28.10.2021 06:40 8,3 C 7,8 C 7,3 C 97 % 1019,6 hPa 0,0 l/m 0 min 0 min 0 W/m 6,4 km/h (2 Bft) 95,74 %
28.10.2021 06:42 8,3 C 7,8 C 7,3 C 97 % 1019,6 hPa 0,0 l/m 0 min 0 min 0 W/m 6,4 km/h (2 Bft) 100,00 %
28.10.2021 06:44 8,3 C 7,8 C 7,8 C 97 % 1019,5 hPa 0,0 l/m 0 min 0 min 0 W/m 6,4 km/h (2 Bft) 100,00 %
28.10.2021 06:46 8,3 C 7,8 C 7,8 C 97 % 1019,5 hPa 0,0 l/m 0 min 0 min 0 W/m 6,4 km/h (2 Bft) 63,83 %
28.10.2021 06:48 8,4 C 7,8 C 7,8 C 97 % 1019,5 hPa 0,0 l/m 0 min 0 min 0 W/m 12,9 km/h (3 Bft) 90,91 %
28.10.2021 06:50 8,4 C 7,8 C 7,8 C 97 % 1019,5 hPa 0,0 l/m 0 min 0 min 0 W/m 6,4 km/h (2 Bft) 100,00 %
28.10.2021 06:52 8,4 C 7,8 C 7,8 C 97 % 1019,4 hPa 0,0 l/m 0 min 0 min 0 W/m 6,4 km/h (2 Bft) 100,00 %
28.10.2021 06:54 8,4 C 7,8 C 7,8 C 97 % 1019,5 hPa 0,0 l/m 0 min 0 min 0 W/m 12,9 km/h (3 Bft) 100,00 %
28.10.2021 06:56 8,4 C 7,8 C 7,8 C 97 % 1019,4 hPa 0,0 l/m 0 min 0 min 0 W/m 12,9 km/h (3 Bft) 100,00 %
28.10.2021 06:58 8,4 C 7,8 C 7,8 C 97 % 1019,4 hPa 0,0 l/m 0 min 0 min 0 W/m 6,4 km/h (2 Bft) 100,00 %
28.10.2021 07:00 8,4 C 7,8 C 7,8 C 97 % 1019,4 hPa 0,0 l/m 0 min 0 min 0 W/m 12,9 km/h (3 Bft) 100,00 %
28.10.2021 07:02 8,4 C 7,8 C 7,8 C 97 % 1019,4 hPa 0,0 l/m 0 min 0 min 0 W/m 16,1 km/h (3 Bft) 100,00 %
28.10.2021 07:04 8,4 C 7,8 C 7,8 C 97 % 1019,4 hPa 0,0 l/m 0 min 0 min 0 W/m 12,9 km/h (3 Bft) 100,00 %
28.10.2021 07:06 8,4 C 7,8 C 7,8 C 97 % 1019,3 hPa 0,0 l/m 0 min 0 min 0 W/m 19,3 km/h (3 Bft) 100,00 %
28.10.2021 07:08 8,4 C 7,8 C 7,8 C 97 % 1019,4 hPa 0,0 l/m 0 min 0 min 0 W/m 16,1 km/h (3 Bft) 100,00 %
28.10.2021 07:10 8,4 C 7,8 C 7,8 C 97 % 1019,3 hPa 0,0 l/m 0 min 0 min 0 W/m 9,7 km/h (2 Bft) 100,00 %
28.10.2021 07:12 8,4 C 7,8 C 7,8 C 97 % 1019,3 hPa 0,0 l/m 0 min 0 min 0 W/m 6,4 km/h (2 Bft) 100,00 %
28.10.2021 07:14 8,5 C 7,8 C 7,8 C 97 % 1019,3 hPa 0,0 l/m 0 min 0 min 0 W/m 6,4 km/h (2 Bft) 100,00 %
28.10.2021 07:16 8,5 C 7,8 C 7,8 C 97 % 1019,3 hPa 0,0 l/m 0 min 0 min 0 W/m 9,7 km/h (2 Bft) 97,83 %
28.10.2021 07:18 8,5 C 7,8 C 7,8 C 97 % 1019,3 hPa 0,0 l/m 0 min 0 min 0 W/m 9,7 km/h (2 Bft) 100,00 %
28.10.2021 07:20 8,5 C 7,8 C 7,8 C 97 % 1019,3 hPa 0,0 l/m 0 min 0 min 0 W/m 12,9 km/h (3 Bft) 100,00 %
28.10.2021 07:22 8,5 C 7,8 C 7,8 C 97 % 1019,3 hPa 0,0 l/m 0 min 0 min 0 W/m 6,4 km/h (2 Bft) 100,00 %
28.10.2021 07:24 8,5 C 7,8 C 7,8 C 97 % 1019,3 hPa 0,0 l/m 0 min 0 min 0 W/m 6,4 km/h (2 Bft) 97,87 %
28.10.2021 07:26 8,5 C 7,8 C 7,8 C 97 % 1019,3 hPa 0,0 l/m 0 min 0 min 0 W/m 9,7 km/h (2 Bft) 100,00 %
28.10.2021 07:28 8,5 C 7,8 C 7,8 C 97 % 1019,3 hPa 0,0 l/m 0 min 0 min 0 W/m 6,4 km/h (2 Bft) 100,00 %
28.10.2021 07:30 8,5 C 7,8 C 7,8 C 97 % 1019,3 hPa 0,0 l/m 0 min 0 min 0 W/m 16,1 km/h (3 Bft) 97,83 %
28.10.2021 07:32 8,5 C 7,8 C 7,8 C 97 % 1019,3 hPa 0,0 l/m 0 min 0 min 0 W/m 6,4 km/h (2 Bft) 95,74 %
28.10.2021 07:34 8,5 C 7,8 C 7,8 C 97 % 1019,2 hPa 0,0 l/m 0 min 0 min 0 W/m 16,1 km/h (3 Bft) 97,87 %
28.10.2021 07:36 8,5 C 7,8 C 7,8 C 97 % 1019,2 hPa 0,0 l/m 0 min 0 min 0 W/m 12,9 km/h (3 Bft) 97,87 %
28.10.2021 07:38 8,5 C 7,8 C 7,8 C 97 % 1019,2 hPa 0,0 l/m 0 min 0 min 0 W/m 16,1 km/h (3 Bft) 95,74 %
28.10.2021 07:40 8,5 C 7,8 C 7,8 C 97 % 1019,2 hPa 0,0 l/m 0 min 0 min 0 W/m 12,9 km/h (3 Bft) 95,74 %
28.10.2021 07:42 8,5 C 7,8 C 7,8 C 97 % 1019,2 hPa 0,0 l/m 0 min 0 min 0 W/m 16,1 km/h (3 Bft) 97,83 %
28.10.2021 07:44 8,5 C 7,8 C 7,8 C 97 % 1019,2 hPa 0,0 l/m 0 min 0 min 0 W/m 9,7 km/h (2 Bft) 97,87 %
28.10.2021 07:46 8,5 C 7,8 C 7,8 C 97 % 1019,1 hPa 0,0 l/m 0 min 0 min 0 W/m 16,1 km/h (3 Bft) 97,87 %
28.10.2021 07:48 8,5 C 7,8 C 7,8 C 97 % 1019,1 hPa 0,0 l/m 0 min 0 min 0 W/m 9,7 km/h (2 Bft) 95,74 %
28.10.2021 07:50 8,5 C 7,8 C 7,8 C 97 % 1019,0 hPa 0,0 l/m 0 min 0 min 0 W/m 3,2 km/h (1 Bft) 95,74 %
28.10.2021 07:52 8,5 C 7,8 C 7,8 C 97 % 1019,0 hPa 0,0 l/m 0 min 0 min 0 W/m 6,4 km/h (2 Bft) 95,65 %
28.10.2021 07:54 8,5 C 7,8 C 7,8 C 97 % 1019,0 hPa 0,0 l/m 0 min 0 min 0 W/m 6,4 km/h (2 Bft) 95,74 %
28.10.2021 07:56 8,5 C 7,8 C 7,8 C 97 % 1019,1 hPa 0,0 l/m 0 min 0 min 0 W/m 12,9 km/h (3 Bft) 93,62 %
28.10.2021 07:58 8,5 C 7,8 C 7,8 C 97 % 1019,0 hPa 0,0 l/m 0 min 0 min 0 W/m 6,4 km/h (2 Bft) 95,74 %
28.10.2021 08:00 8,5 C 7,8 C 7,8 C 97 % 1019,0 hPa 0,0 l/m 0 min 0 min 0 W/m 9,7 km/h (2 Bft) 95,74 %
28.10.2021 08:02 8,5 C 7,8 C 7,8 C 97 % 1019,1 hPa 0,0 l/m 0 min 0 min 0 W/m 6,4 km/h (2 Bft) 95,74 %
28.10.2021 08:04 8,5 C 7,8 C 7,8 C 97 % 1019,0 hPa 0,0 l/m 0 min 0 min 0 W/m 6,4 km/h (2 Bft) 95,65 %
28.10.2021 08:06 8,5 C 7,8 C 7,8 C 97 % 1019,0 hPa 0,0 l/m 0 min 0 min 0 W/m 9,7 km/h (2 Bft) 95,74 %
28.10.2021 08:08 8,5 C 7,8 C 7,8 C 97 % 1019,0 hPa 0,0 l/m 0 min 0 min 0 W/m 6,4 km/h (2 Bft) 95,74 %
28.10.2021 08:10 8,5 C 7,8 C 7,8 C 97 % 1018,9 hPa 0,0 l/m 0 min 0 min 0 W/m 9,7 km/h (2 Bft) 95,74 %
28.10.2021 08:12 8,5 C 7,8 C 7,8 C 97 % 1018,9 hPa 0,0 l/m 0 min 0 min 0 W/m 6,4 km/h (2 Bft) 95,74 %
28.10.2021 08:14 8,4 C 7,8 C 7,8 C 97 % 1018,9 hPa 0,0 l/m 0 min 0 min 0 W/m 12,9 km/h (3 Bft) 97,87 %
28.10.2021 08:16 8,4 C 7,8 C 7,8 C 97 % 1018,9 hPa 0,0 l/m 0 min 0 min 0 W/m 6,4 km/h (2 Bft) 95,65 %
28.10.2021 08:18 8,4 C 7,8 C 7,8 C 97 % 1018,8 hPa 0,0 l/m 0 min 0 min 0 W/m 9,7 km/h (2 Bft) 95,74 %
28.10.2021 08:20 8,4 C 7,8 C 7,8 C 97 % 1018,8 hPa 0,0 l/m 0 min 0 min 0 W/m 12,9 km/h (3 Bft) 65,96 %
28.10.2021 08:22 8,4 C 7,8 C 7,8 C 97 % 1018,8 hPa 0,0 l/m 0 min 0 min 0 W/m 6,4 km/h (2 Bft) 83,33 %
28.10.2021 08:24 8,4 C 7,8 C 7,8 C 97 % 1018,8 hPa 0,0 l/m 0 min 0 min 0 W/m 6,4 km/h (2 Bft) 97,87 %
28.10.2021 08:26 8,4 C 7,8 C 7,8 C 97 % 1018,8 hPa 0,0 l/m 0 min 0 min 5 W/m 6,4 km/h (2 Bft) 97,87 %
28.10.2021 08:28 8,4 C 7,8 C 7,8 C 97 % 1018,8 hPa 0,0 l/m 0 min 0 min 5 W/m 6,4 km/h (2 Bft) 97,67 %
28.10.2021 08:30 8,4 C 7,8 C 7,8 C 97 % 1018,8 hPa 0,0 l/m 0 min 0 min 5 W/m 12,9 km/h (3 Bft) 97,83 %
28.10.2021 08:32 8,4 C 7,8 C 7,8 C 97 % 1018,8 hPa 0,0 l/m 0 min 0 min 7 W/m 6,4 km/h (2 Bft) 97,87 %
28.10.2021 08:34 8,4 C 7,8 C 7,8 C 97 % 1018,8 hPa 0,0 l/m 0 min 0 min 7 W/m 9,7 km/h (2 Bft) 95,74 %
28.10.2021 08:36 8,4 C 7,8 C 7,8 C 98 % 1018,8 hPa 0,0 l/m 0 min 0 min 7 W/m 12,9 km/h (3 Bft) 97,87 %
28.10.2021 08:38 8,4 C 7,8 C 7,8 C 98 % 1018,7 hPa 0,0 l/m 0 min 0 min 8 W/m 12,9 km/h (3 Bft) 100,00 %
28.10.2021 08:40 8,4 C 7,8 C 7,8 C 98 % 1018,7 hPa 0,0 l/m 0 min 0 min 9 W/m 6,4 km/h (2 Bft) 97,87 %
28.10.2021 08:42 8,4 C 7,8 C 7,8 C 98 % 1018,7 hPa 0,0 l/m 0 min 0 min 11 W/m 6,4 km/h (2 Bft) 93,48 %
28.10.2021 08:44 8,4 C 7,8 C 7,8 C 98 % 1018,8 hPa 0,0 l/m 0 min 0 min 12 W/m 16,1 km/h (3 Bft) 97,87 %
28.10.2021 08:46 8,4 C 7,8 C 7,8 C 98 % 1018,8 hPa 0,0 l/m 0 min 0 min 13 W/m 16,1 km/h (3 Bft) 93,62 %
28.10.2021 08:48 8,4 C 7,8 C 7,8 C 98 % 1018,8 hPa 0,0 l/m 0 min 0 min 16 W/m 12,9 km/h (3 Bft) 97,87 %
28.10.2021 08:50 8,4 C 7,8 C 7,8 C 98 % 1018,8 hPa 0,0 l/m 0 min 0 min 16 W/m 12,9 km/h (3 Bft) 97,87 %
28.10.2021 08:52 8,4 C 7,8 C 7,8 C 98 % 1018,8 hPa 0,0 l/m 0 min 0 min 18 W/m 6,4 km/h (2 Bft) 95,74 %
28.10.2021 08:54 8,4 C 7,8 C 7,8 C 98 % 1018,8 hPa 0,0 l/m 0 min 0 min 19 W/m 6,4 km/h (2 Bft) 97,83 %
28.10.2021 08:56 8,4 C 7,8 C 7,8 C 98 % 1018,8 hPa 0,0 l/m 0 min 0 min 20 W/m 12,9 km/h (3 Bft) 97,87 %
28.10.2021 08:58 8,4 C 7,8 C 8,4 C 98 % 1018,8 hPa 0,0 l/m 0 min 0 min 23 W/m 12,9 km/h (3 Bft) 97,87 %
28.10.2021 09:00 8,4 C 7,8 C 8,4 C 98 % 1018,8 hPa 0,0 l/m 0 min 0 min 24 W/m 12,9 km/h (3 Bft) 97,87 %
28.10.2021 09:02 8,4 C 7,8 C 8,4 C 98 % 1018,7 hPa 0,0 l/m 0 min 0 min 26 W/m 16,1 km/h (3 Bft) 97,87 %
28.10.2021 09:04 8,4 C 7,8 C 8,4 C 97 % 1018,7 hPa 0,0 l/m 0 min 0 min 27 W/m 12,9 km/h (3 Bft) 97,87 %
28.10.2021 09:06 8,5 C 8,3 C 8,4 C 98 % 1018,8 hPa 0,0 l/m 0 min 0 min 30 W/m 12,9 km/h (3 Bft) 97,83 %
28.10.2021 09:08 8,5 C 8,3 C 8,4 C 98 % 1018,8 hPa 0,0 l/m 0 min 0 min 27 W/m 12,9 km/h (3 Bft) 97,87 %
28.10.2021 09:10 8,5 C 8,3 C 8,4 C 98 % 1018,8 hPa 0,0 l/m 0 min 0 min 26 W/m 12,9 km/h (3 Bft) 97,87 %
28.10.2021 09:12 8,5 C 8,3 C 8,4 C 98 % 1018,8 hPa 0,0 l/m 0 min 0 min 27 W/m 6,4 km/h (2 Bft) 100,00 %
28.10.2021 09:14 8,5 C 8,3 C 8,4 C 98 % 1018,8 hPa 0,0 l/m 0 min 0 min 29 W/m 6,4 km/h (2 Bft) 97,87 %
28.10.2021 09:16 8,5 C 8,3 C 8,4 C 98 % 1018,8 hPa 0,0 l/m 0 min 0 min 29 W/m 6,4 km/h (2 Bft) 100,00 %
28.10.2021 09:18 8,5 C 8,3 C 8,4 C 98 % 1018,8 hPa 0,0 l/m 0 min 0 min 30 W/m 6,4 km/h (2 Bft) 100,00 %
28.10.2021 09:20 8,5 C 8,3 C 8,4 C 98 % 1018,8 hPa 0,0 l/m 0 min 0 min 30 W/m 12,9 km/h (3 Bft) 100,00 %
28.10.2021 09:22 8,5 C 8,3 C 8,4 C 98 % 1018,8 hPa 0,0 l/m 0 min 0 min 36 W/m 12,9 km/h (3 Bft) 100,00 %
28.10.2021 09:24 8,5 C 8,3 C 8,4 C 98 % 1018,8 hPa 0,0 l/m 0 min 0 min 43 W/m 6,4 km/h (2 Bft) 100,00 %
28.10.2021 09:26 8,5 C 8,3 C 8,4 C 98 % 1018,8 hPa 0,0 l/m 0 min 0 min 48 W/m 6,4 km/h (2 Bft) 100,00 %
28.10.2021 09:28 8,6 C 8,3 C 8,4 C 98 % 1018,8 hPa 0,0 l/m 0 min 0 min 50 W/m 6,4 km/h (2 Bft) 100,00 %
28.10.2021 09:30 8,6 C 8,3 C 8,4 C 98 % 1018,8 hPa 0,0 l/m 0 min 0 min 45 W/m 6,4 km/h (2 Bft) 100,00 %
28.10.2021 09:32 8,6 C 8,3 C 8,4 C 98 % 1018,8 hPa 0,0 l/m 0 min 0 min 41 W/m 6,4 km/h (2 Bft) 100,00 %
28.10.2021 09:34 8,6 C 8,3 C 8,4 C 98 % 1018,8 hPa 0,0 l/m 0 min 0 min 49 W/m 6,4 km/h (2 Bft) 100,00 %
28.10.2021 09:36 8,6 C 8,3 C 8,4 C 98 % 1018,8 hPa 0,0 l/m 0 min 0 min 50 W/m 12,9 km/h (3 Bft) 100,00 %
28.10.2021 09:38 8,6 C 8,3 C 8,4 C 98 % 1018,8 hPa 0,0 l/m 0 min 0 min 50 W/m 12,9 km/h (3 Bft) 100,00 %
28.10.2021 09:40 8,6 C 8,3 C 8,4 C 98 % 1018,8 hPa 0,0 l/m 0 min 0 min 52 W/m 9,7 km/h (2 Bft) 100,00 %
28.10.2021 09:42 8,6 C 8,3 C 8,4 C 98 % 1018,8 hPa 0,0 l/m 0 min 0 min 60 W/m 12,9 km/h (3 Bft) 97,87 %
28.10.2021 09:44 8,6 C 8,3 C 8,4 C 98 % 1018,8 hPa 0,0 l/m 0 min 0 min 64 W/m 19,3 km/h (3 Bft) 97,87 %
28.10.2021 09:46 8,6 C 8,3 C 8,4 C 98 % 1018,7 hPa 0,0 l/m 0 min 0 min 62 W/m 16,1 km/h (3 Bft) 97,87 %
28.10.2021 09:48 8,7 C 8,3 C 8,4 C 98 % 1018,7 hPa 0,0 l/m 0 min 0 min 54 W/m 12,9 km/h (3 Bft) 97,87 %
28.10.2021 09:50 8,7 C 8,3 C 8,4 C 98 % 1018,7 hPa 0,0 l/m 0 min 0 min 55 W/m 12,9 km/h (3 Bft) 100,00 %
28.10.2021 09:52 8,7 C 8,3 C 8,4 C 98 % 1018,7 hPa 0,0 l/m 0 min 0 min 66 W/m 16,1 km/h (3 Bft) 95,65 %
28.10.2021 09:54 8,7 C 8,3 C 8,4 C 98 % 1018,7 hPa 0,0 l/m 0 min 0 min 63 W/m 16,1 km/h (3 Bft) 97,87 %
28.10.2021 09:56 8,8 C 8,9 C 8,4 C 98 % 1018,7 hPa 0,0 l/m 0 min 0 min 69 W/m 12,9 km/h (3 Bft) 97,87 %
28.10.2021 09:58 8,8 C 8,9 C 8,4 C 98 % 1018,7 hPa 0,0 l/m 0 min 0 min 72 W/m 6,4 km/h (2 Bft) 95,74 %
28.10.2021 10:00 8,8 C 8,9 C 8,9 C 98 % 1018,6 hPa 0,0 l/m 0 min 0 min 81 W/m 12,9 km/h (3 Bft) 95,74 %
28.10.2021 10:02 8,8 C 8,9 C 8,9 C 98 % 1018,7 hPa 0,0 l/m 0 min 0 min 84 W/m 6,4 km/h (2 Bft) 95,74 %
28.10.2021 10:04 8,8 C 8,9 C 8,9 C 98 % 1018,7 hPa 0,0 l/m 0 min 0 min 86 W/m 6,4 km/h (2 Bft) 95,65 %
28.10.2021 10:06 8,9 C 8,9 C 8,9 C 98 % 1018,7 hPa 0,0 l/m 0 min 0 min 90 W/m 12,9 km/h (3 Bft) 95,74 %
28.10.2021 10:08 8,9 C 9,4 C 8,9 C 98 % 1018,7 hPa 0,0 l/m 0 min 0 min 95 W/m 6,4 km/h (2 Bft) 96,00 %
28.10.2021 10:10 8,9 C 9,4 C 8,9 C 98 % 1018,6 hPa 0,0 l/m 0 min 0 min 92 W/m 6,4 km/h (2 Bft) 93,62 %
28.10.2021 10:12 9,0 C 9,4 C 8,9 C 98 % 1018,7 hPa 0,0 l/m 0 min 0 min 92 W/m 12,9 km/h (3 Bft) 93,62 %
28.10.2021 10:14 9,0 C 9,4 C 8,9 C 98 % 1018,7 hPa 0,0 l/m 0 min 0 min 81 W/m 12,9 km/h (3 Bft) 95,65 %
28.10.2021 10:16 9,0 C 9,4 C 8,9 C 98 % 1018,7 hPa 0,0 l/m 0 min 0 min 81 W/m 16,1 km/h (3 Bft) 95,74 %
28.10.2021 10:18 9,0 C 9,4 C 8,9 C 98 % 1018,6 hPa 0,0 l/m 0 min 0 min 122 W/m 6,4 km/h (2 Bft) 95,74 %
28.10.2021 10:20 9,1 C 9,4 C 8,9 C 98 % 1018,6 hPa 0,0 l/m 2 min 0 min 156 W/m 12,9 km/h (3 Bft) 97,87 %
28.10.2021 10:22 9,1 C 9,4 C 8,9 C 98 % 1018,5 hPa 0,0 l/m 0 min 0 min 105 W/m 6,4 km/h (2 Bft) 97,87 %
28.10.2021 10:24 9,1 C 9,4 C 8,9 C 98 % 1018,5 hPa 0,0 l/m 0 min 0 min 65 W/m 9,7 km/h (2 Bft) 95,74 %
28.10.2021 10:26 9,1 C 9,4 C 8,9 C 98 % 1018,4 hPa 0,0 l/m 0 min 0 min 48 W/m 12,9 km/h (3 Bft) 97,83 %
28.10.2021 10:28 9,1 C 9,4 C 8,9 C 98 % 1018,5 hPa 0,0 l/m 0 min 0 min 50 W/m 12,9 km/h (3 Bft) 97,87 %
28.10.2021 10:30 9,2 C 10,0 C 8,9 C 98 % 1018,5 hPa 0,0 l/m 0 min 0 min 49 W/m 9,7 km/h (2 Bft) 97,87 %
28.10.2021 10:32 9,3 C 10,0 C 9,5 C 98 % 1018,5 hPa 0,0 l/m 0 min 0 min 109 W/m 12,9 km/h (3 Bft) 97,87 %
28.10.2021 10:34 9,3 C 10,0 C 9,5 C 98 % 1018,5 hPa 0,0 l/m 0 min 0 min 55 W/m 16,1 km/h (3 Bft) 97,87 %
28.10.2021 10:36 9,4 C 10,0 C 9,5 C 98 % 1018,5 hPa 0,0 l/m 0 min 0 min 49 W/m 6,4 km/h (2 Bft) 97,87 %
28.10.2021 10:38 9,4 C 10,0 C 9,5 C 98 % 1018,5 hPa 0,0 l/m 0 min 0 min 59 W/m 12,9 km/h (3 Bft) 97,83 %
28.10.2021 10:40 9,5 C 10,0 C 9,5 C 98 % 1018,4 hPa 0,0 l/m 0 min 0 min 69 W/m 12,9 km/h (3 Bft) 97,87 %
28.10.2021 10:42 9,5 C 10,6 C 9,5 C 98 % 1018,4 hPa 0,0 l/m 0 min 0 min 50 W/m 9,7 km/h (2 Bft) 95,74 %
28.10.2021 10:44 9,6 C 10,6 C 9,5 C 98 % 1018,4 hPa 0,0 l/m 0 min 0 min 91 W/m 9,7 km/h (2 Bft) 100,00 %
28.10.2021 10:46 9,6 C 10,6 C 9,5 C 98 % 1018,4 hPa 0,0 l/m 2 min 0 min 175 W/m 16,1 km/h (3 Bft) 100,00 %
28.10.2021 10:48 9,8 C 10,6 C 9,5 C 98 % 1018,4 hPa 0,0 l/m 0 min 0 min 129 W/m 12,9 km/h (3 Bft) 100,00 %
28.10.2021 10:50 9,8 C 10,6 C 10,0 C 98 % 1018,4 hPa 0,0 l/m 2 min 0 min 166 W/m 12,9 km/h (3 Bft) 100,00 %
28.10.2021 10:52 9,9 C 10,6 C 10,0 C 98 % 1018,4 hPa 0,0 l/m 0 min 0 min 125 W/m 16,1 km/h (3 Bft) 100,00 %
28.10.2021 10:54 10,0 C 11,1 C 10,0 C 98 % 1018,5 hPa 0,0 l/m 0 min 0 min 90 W/m 16,1 km/h (3 Bft) 100,00 %
28.10.2021 10:56 10,0 C 11,1 C 10,0 C 98 % 1018,4 hPa 0,0 l/m 0 min 0 min 141 W/m 16,1 km/h (3 Bft) 100,00 %
28.10.2021 10:58 10,1 C 11,7 C 10,0 C 98 % 1018,4 hPa 0,0 l/m 0 min 0 min 140 W/m 19,3 km/h (3 Bft) 95,74 %
28.10.2021 11:00 10,1 C 12,2 C 10,0 C 98 % 1018,4 hPa 0,0 l/m 0 min 0 min 110 W/m 16,1 km/h (3 Bft) 97,87 %
28.10.2021 11:02 10,3 C 13,3 C 10,0 C 98 % 1018,4 hPa 0,0 l/m 0 min 0 min 58 W/m 12,9 km/h (3 Bft) 100,00 %
28.10.2021 11:04 10,3 C 14,4 C 10,0 C 98 % 1018,4 hPa 0,0 l/m 0 min 0 min 118 W/m 19,3 km/h (3 Bft) 100,00 %
28.10.2021 11:06 10,4 C 15,6 C 10,0 C 98 % 1018,3 hPa 0,0 l/m 0 min 0 min 83 W/m 16,1 km/h (3 Bft) 100,00 %
28.10.2021 11:08 10,5 C 16,7 C 10,6 C 98 % 1018,3 hPa 0,0 l/m 0 min 0 min 76 W/m 9,7 km/h (2 Bft) 97,87 %
28.10.2021 11:10 10,5 C 16,7 C 10,6 C 98 % 1018,3 hPa 0,0 l/m 2 min 0 min 247 W/m 19,3 km/h (3 Bft) 95,74 %
28.10.2021 11:12 10,6 C 17,2 C 10,6 C 98 % 1018,3 hPa 0,0 l/m 2 min 0 min 270 W/m 16,1 km/h (3 Bft) 97,87 %
28.10.2021 11:14 10,8 C 17,8 C 10,6 C 98 % 1018,3 hPa 0,0 l/m 2 min 0 min 321 W/m 12,9 km/h (3 Bft) 97,83 %
28.10.2021 11:16 10,9 C 18,9 C 10,6 C 98 % 1018,2 hPa 0,0 l/m 2 min 0 min 243 W/m 6,4 km/h (2 Bft) 97,87 %
28.10.2021 11:18 10,9 C 19,4 C 10,6 C 97 % 1018,2 hPa 0,0 l/m 2 min 0 min 297 W/m 12,9 km/h (3 Bft) 95,74 %
28.10.2021 11:20 11,1 C 20,0 C 10,6 C 97 % 1018,2 hPa 0,0 l/m 2 min 0 min 339 W/m 12,9 km/h (3 Bft) 97,87 %
28.10.2021 11:22 11,2 C 20,0 C 11,1 C 97 % 1018,2 hPa 0,0 l/m 2 min 0 min 348 W/m 16,1 km/h (3 Bft) 97,87 %
28.10.2021 11:24 11,3 C 19,4 C 11,1 C 97 % 1018,1 hPa 0,0 l/m 2 min 0 min 354 W/m 12,9 km/h (3 Bft) 97,87 %
28.10.2021 11:26 11,4 C 20,0 C 11,1 C 97 % 1018,2 hPa 0,0 l/m 2 min 0 min 356 W/m 12,9 km/h (3 Bft) 95,65 %
28.10.2021 11:28 11,5 C 20,0 C 11,1 C 96 % 1018,1 hPa 0,0 l/m 2 min 0 min 335 W/m 12,9 km/h (3 Bft) 97,87 %
28.10.2021 11:30 11,6 C 21,1 C 11,1 C 96 % 1018,1 hPa 0,0 l/m 2 min 0 min 284 W/m 9,7 km/h (2 Bft) 93,62 %
28.10.2021 11:32 11,8 C 20,0 C 11,1 C 96 % 1018,1 hPa 0,0 l/m 2 min 0 min 356 W/m 16,1 km/h (3 Bft) 97,87 %
28.10.2021 11:34 11,8 C 19,4 C 11,1 C 96 % 1018,2 hPa 0,0 l/m 2 min 0 min 358 W/m 19,3 km/h (3 Bft) 95,74 %
28.10.2021 11:36 11,9 C 19,4 C 11,1 C 95 % 1018,2 hPa 0,0 l/m 2 min 0 min 305 W/m 12,9 km/h (3 Bft) 97,87 %
28.10.2021 11:38 12,0 C 18,9 C 11,1 C 94 % 1018,0 hPa 0,0 l/m 2 min 0 min 259 W/m 16,1 km/h (3 Bft) 97,83 %
28.10.2021 11:40 12,1 C 18,3 C 11,1 C 94 % 1017,9 hPa 0,0 l/m 2 min 0 min 292 W/m 16,1 km/h (3 Bft) 97,87 %
28.10.2021 11:42 12,1 C 18,9 C 11,1 C 93 % 1017,9 hPa 0,0 l/m 2 min 0 min 298 W/m 19,3 km/h (3 Bft) 95,74 %
28.10.2021 11:44 12,3 C 18,9 C 11,7 C 92 % 1017,9 hPa 0,0 l/m 2 min 0 min 270 W/m 16,1 km/h (3 Bft) 95,74 %
28.10.2021 11:46 12,4 C 17,8 C 11,7 C 92 % 1017,9 hPa 0,0 l/m 0 min 0 min 178 W/m 12,9 km/h (3 Bft) 100,00 %
28.10.2021 11:48 12,4 C 16,7 C 11,7 C 91 % 1017,9 hPa 0,0 l/m 2 min 0 min 342 W/m 16,1 km/h (3 Bft) 100,00 %
28.10.2021 11:50 12,5 C 16,1 C 11,7 C 91 % 1017,9 hPa 0,0 l/m 2 min 0 min 233 W/m 16,1 km/h (3 Bft) 97,83 %
28.10.2021 11:52 12,5 C 15,6 C 11,7 C 91 % 1017,9 hPa 0,0 l/m 0 min 0 min 147 W/m 16,1 km/h (3 Bft) 97,87 %
28.10.2021 11:54 12,6 C 15,0 C 11,7 C 90 % 1017,9 hPa 0,0 l/m 2 min 0 min 206 W/m 16,1 km/h (3 Bft) 93,62 %
28.10.2021 11:56 12,6 C 15,0 C 11,7 C 89 % 1017,9 hPa 0,0 l/m 2 min 0 min 254 W/m 22,5 km/h (4 Bft) 97,87 %
28.10.2021 11:58 12,6 C 15,0 C 11,1 C 89 % 1017,9 hPa 0,0 l/m 2 min 0 min 206 W/m 12,9 km/h (3 Bft) 97,87 %
28.10.2021 12:00 12,6 C 14,4 C 11,1 C 88 % 1017,9 hPa 0,0 l/m 0 min 0 min 163 W/m 12,9 km/h (3 Bft) 97,87 %
28.10.2021 12:02 12,7 C 15,0 C 11,1 C 88 % 1017,9 hPa 0,0 l/m 0 min 0 min 122 W/m 19,3 km/h (3 Bft) 97,83 %
28.10.2021 12:04 12,8 C 14,4 C 11,1 C 88 % 1017,8 hPa 0,0 l/m 0 min 0 min 74 W/m 12,9 km/h (3 Bft) 95,74 %
28.10.2021 12:08 12,8 C 13,3 C 11,7 C 88 % 1017,8 hPa 0,0 l/m 0 min 0 min 47 W/m 19,3 km/h (3 Bft) 97,87 %
28.10.2021 12:10 12,9 C 13,3 C 11,7 C 87 % 1017,9 hPa 0,0 l/m 0 min 0 min 60 W/m 19,3 km/h (3 Bft) 97,87 %
28.10.2021 12:12 12,9 C 12,8 C 11,7 C 87 % 1017,8 hPa 0,0 l/m 0 min 0 min 50 W/m 16,1 km/h (3 Bft) 95,74 %
28.10.2021 12:14 12,9 C 12,8 C 11,1 C 86 % 1017,8 hPa 0,0 l/m 0 min 0 min 46 W/m 16,1 km/h (3 Bft) 97,83 %
28.10.2021 12:16 12,9 C 12,8 C 11,1 C 86 % 1017,7 hPa 0,0 l/m 0 min 0 min 47 W/m 16,1 km/h (3 Bft) 97,87 %
28.10.2021 12:18 12,9 C 12,8 C 11,1 C 86 % 1017,8 hPa 0,0 l/m 0 min 0 min 47 W/m 19,3 km/h (3 Bft) 97,87 %
28.10.2021 12:20 12,9 C 12,8 C 11,1 C 86 % 1017,7 hPa 0,0 l/m 0 min 0 min 47 W/m 12,9 km/h (3 Bft) 95,74 %
28.10.2021 12:22 12,9 C 12,8 C 11,1 C 86 % 1017,7 hPa 0,0 l/m 0 min 0 min 46 W/m 19,3 km/h (3 Bft) 97,87 %
28.10.2021 12:24 12,9 C 12,8 C 11,1 C 86 % 1017,7 hPa 0,0 l/m 0 min 0 min 48 W/m 12,9 km/h (3 Bft) 100,00 %
28.10.2021 12:26 13,0 C 12,8 C 11,1 C 86 % 1017,7 hPa 0,0 l/m 0 min 0 min 63 W/m 9,7 km/h (2 Bft) 100,00 %
28.10.2021 12:28 13,0 C 12,8 C 11,1 C 86 % 1017,6 hPa 0,0 l/m 0 min 0 min 46 W/m 12,9 km/h (3 Bft) 100,00 %
28.10.2021 12:30 13,1 C 13,3 C 11,7 C 86 % 1017,6 hPa 0,0 l/m 0 min 0 min 46 W/m 6,4 km/h (2 Bft) 100,00 %
28.10.2021 12:32 13,1 C 13,3 C 11,7 C 86 % 1017,6 hPa 0,0 l/m 0 min 0 min 46 W/m 6,4 km/h (2 Bft) 100,00 %
28.10.2021 12:34 13,2 C 13,3 C 11,7 C 86 % 1017,6 hPa 0,0 l/m 0 min 0 min 46 W/m 12,9 km/h (3 Bft) 100,00 %
28.10.2021 12:36 13,2 C 13,3 C 11,7 C 86 % 1017,6 hPa 0,0 l/m 0 min 0 min 46 W/m 9,7 km/h (2 Bft) 100,00 %
28.10.2021 12:38 13,3 C 13,3 C 11,7 C 85 % 1017,5 hPa 0,0 l/m 0 min 0 min 46 W/m 19,3 km/h (3 Bft) 97,83 %
28.10.2021 12:40 13,3 C 13,3 C 11,7 C 85 % 1017,5 hPa 0,0 l/m 0 min 0 min 46 W/m 19,3 km/h (3 Bft) 100,00 %
28.10.2021 12:42 13,3 C 13,3 C 11,7 C 85 % 1017,4 hPa 0,0 l/m 0 min 0 min 46 W/m 19,3 km/h (3 Bft) 100,00 %
28.10.2021 12:44 13,3 C 13,3 C 11,7 C 85 % 1017,3 hPa 0,0 l/m 0 min 0 min 46 W/m 16,1 km/h (3 Bft) 100,00 %
28.10.2021 12:46 13,4 C 13,3 C 11,7 C 84 % 1017,3 hPa 0,0 l/m 0 min 0 min 46 W/m 12,9 km/h (3 Bft) 97,87 %
28.10.2021 12:48 13,4 C 13,3 C 11,7 C 84 % 1017,3 hPa 0,0 l/m 0 min 0 min 46 W/m 16,1 km/h (3 Bft) 100,00 %
28.10.2021 12:50 13,4 C 13,3 C 11,7 C 84 % 1017,3 hPa 0,0 l/m 0 min 0 min 44 W/m 12,9 km/h (3 Bft) 100,00 %
28.10.2021 12:52 13,5 C 13,3 C 11,7 C 84 % 1017,3 hPa 0,0 l/m 0 min 0 min 46 W/m 19,3 km/h (3 Bft) 100,00 %
28.10.2021 12:54 13,5 C 13,9 C 11,7 C 84 % 1017,4 hPa 0,0 l/m 0 min 0 min 44 W/m 16,1 km/h (3 Bft) 100,00 %
28.10.2021 12:56 13,6 C 13,9 C 11,7 C 84 % 1017,4 hPa 0,0 l/m 0 min 0 min 44 W/m 12,9 km/h (3 Bft) 100,00 %
28.10.2021 12:58 13,6 C 13,9 C 12,3 C 84 % 1017,3 hPa 0,0 l/m 0 min 0 min 44 W/m 16,1 km/h (3 Bft) 100,00 %
28.10.2021 13:00 13,7 C 13,9 C 12,3 C 83 % 1017,2 hPa 0,0 l/m 0 min 0 min 44 W/m 22,5 km/h (4 Bft) 100,00 %
28.10.2021 13:02 13,8 C 13,9 C 12,3 C 83 % 1017,3 hPa 0,0 l/m 0 min 0 min 44 W/m 16,1 km/h (3 Bft) 100,00 %
28.10.2021 13:04 13,8 C 13,9 C 12,3 C 83 % 1017,3 hPa 0,0 l/m 0 min 0 min 44 W/m 19,3 km/h (3 Bft) 100,00 %
28.10.2021 13:06 13,9 C 13,9 C 12,3 C 83 % 1017,2 hPa 0,0 l/m 0 min 0 min 44 W/m 16,1 km/h (3 Bft) 100,00 %
28.10.2021 13:08 13,9 C 13,9 C 12,3 C 83 % 1017,2 hPa 0,0 l/m 0 min 0 min 44 W/m 12,9 km/h (3 Bft) 97,83 %
28.10.2021 13:10 14,0 C 13,9 C 12,3 C 82 % 1017,1 hPa 0,0 l/m 0 min 0 min 44 W/m 12,9 km/h (3 Bft) 97,87 %
28.10.2021 13:12 14,0 C 13,9 C 12,3 C 82 % 1017,1 hPa 0,0 l/m 0 min 0 min 47 W/m 16,1 km/h (3 Bft) 97,87 %
28.10.2021 13:14 14,1 C 13,9 C 12,3 C 82 % 1017,1 hPa 0,0 l/m 0 min 0 min 45 W/m 16,1 km/h (3 Bft) 97,87 %
28.10.2021 13:16 14,2 C 13,9 C 12,3 C 82 % 1017,0 hPa 0,0 l/m 0 min 0 min 44 W/m 16,1 km/h (3 Bft) 100,00 %
28.10.2021 13:18 14,2 C 14,4 C 12,3 C 82 % 1017,0 hPa 0,0 l/m 0 min 0 min 44 W/m 6,4 km/h (2 Bft) 97,87 %
28.10.2021 13:20 14,2 C 14,4 C 12,3 C 81 % 1016,9 hPa 0,0 l/m 0 min 0 min 45 W/m 12,9 km/h (3 Bft) 97,83 %
28.10.2021 13:22 14,2 C 14,4 C 12,3 C 81 % 1016,9 hPa 0,0 l/m 0 min 0 min 46 W/m 25,7 km/h (4 Bft) 100,00 %
28.10.2021 13:24 14,3 C 14,4 C 12,3 C 81 % 1016,8 hPa 0,0 l/m 0 min 0 min 46 W/m 16,1 km/h (3 Bft) 100,00 %
28.10.2021 13:26 14,3 C 14,4 C 12,3 C 80 % 1016,7 hPa 0,0 l/m 0 min 0 min 47 W/m 12,9 km/h (3 Bft) 97,87 %
28.10.2021 13:28 14,4 C 14,4 C 12,3 C 81 % 1016,7 hPa 0,0 l/m 0 min 0 min 50 W/m 12,9 km/h (3 Bft) 100,00 %
28.10.2021 13:30 14,5 C 15,0 C 12,3 C 81 % 1016,7 hPa 0,0 l/m 0 min 0 min 49 W/m 6,4 km/h (2 Bft) 100,00 %
28.10.2021 13:32 14,5 C 14,4 C 12,3 C 80 % 1016,6 hPa 0,0 l/m 0 min 0 min 85 W/m 19,3 km/h (3 Bft) 97,83 %
28.10.2021 13:34 14,6 C 14,4 C 12,3 C 79 % 1016,7 hPa 0,0 l/m 0 min 0 min 119 W/m 16,1 km/h (3 Bft) 95,74 %
28.10.2021 13:36 14,6 C 14,4 C 12,3 C 79 % 1016,6 hPa 0,0 l/m 0 min 0 min 135 W/m 22,5 km/h (4 Bft) 97,87 %
28.10.2021 13:38 14,7 C 15,0 C 12,3 C 79 % 1016,5 hPa 0,0 l/m 0 min 0 min 80 W/m 9,7 km/h (2 Bft) 97,87 %
28.10.2021 13:40 14,7 C 15,0 C 12,3 C 79 % 1016,5 hPa 0,0 l/m 0 min 0 min 73 W/m 9,7 km/h (2 Bft) 97,87 %
28.10.2021 13:42 14,8 C 15,0 C 12,3 C 79 % 1016,5 hPa 0,0 l/m 0 min 0 min 186 W/m 16,1 km/h (3 Bft) 97,87 %
28.10.2021 13:44 14,9 C 15,6 C 12,3 C 79 % 1016,5 hPa 0,0 l/m 2 min 0 min 444 W/m 12,9 km/h (3 Bft) 95,65 %
28.10.2021 13:46 14,9 C 16,1 C 12,3 C 79 % 1016,5 hPa 0,0 l/m 2 min 0 min 427 W/m 9,7 km/h (2 Bft) 93,62 %
28.10.2021 13:48 15,0 C 16,7 C 12,8 C 79 % 1016,4 hPa 0,0 l/m 2 min 0 min 394 W/m 16,1 km/h (3 Bft) 93,62 %
28.10.2021 13:50 15,0 C 18,3 C 12,8 C 79 % 1016,4 hPa 0,0 l/m 2 min 0 min 343 W/m 12,9 km/h (3 Bft) 93,62 %
28.10.2021 13:52 15,1 C 20,0 C 12,8 C 78 % 1016,4 hPa 0,0 l/m 2 min 0 min 427 W/m 9,7 km/h (2 Bft) 93,62 %
28.10.2021 13:54 15,2 C 21,7 C 12,8 C 78 % 1016,3 hPa 0,0 l/m 2 min 0 min 467 W/m 16,1 km/h (3 Bft) 93,62 %
28.10.2021 13:56 15,3 C 22,8 C 12,8 C 77 % 1016,3 hPa 0,0 l/m 2 min 0 min 467 W/m 9,7 km/h (2 Bft) 93,48 %
28.10.2021 13:58 15,4 C 22,8 C 12,8 C 77 % 1016,3 hPa 0,0 l/m 2 min 0 min 466 W/m 22,5 km/h (4 Bft) 91,49 %
28.10.2021 14:00 15,4 C 23,3 C 12,8 C 77 % 1016,2 hPa 0,0 l/m 2 min 0 min 466 W/m 12,9 km/h (3 Bft) 93,62 %
28.10.2021 14:02 15,5 C 23,3 C 12,8 C 77 % 1016,2 hPa 0,0 l/m 2 min 0 min 465 W/m 12,9 km/h (3 Bft) 91,49 %
28.10.2021 14:04 15,6 C 23,3 C 12,8 C 77 % 1016,2 hPa 0,0 l/m 2 min 0 min 463 W/m 12,9 km/h (3 Bft) 91,49 %
28.10.2021 14:06 15,7 C 21,1 C 12,8 C 77 % 1016,2 hPa 0,0 l/m 2 min 0 min 462 W/m 16,1 km/h (3 Bft) 91,49 %
28.10.2021 14:08 15,8 C 19,4 C 12,8 C 77 % 1016,1 hPa 0,0 l/m 2 min 0 min 460 W/m 12,9 km/h (3 Bft) 93,48 %
28.10.2021 14:10 15,9 C 18,9 C 12,8 C 77 % 1016,1 hPa 0,0 l/m 2 min 0 min 458 W/m 12,9 km/h (3 Bft) 93,62 %
28.10.2021 14:12 16,0 C 18,3 C 12,8 C 76 % 1016,1 hPa 0,0 l/m 2 min 0 min 457 W/m 16,1 km/h (3 Bft) 93,62 %
28.10.2021 14:14 16,0 C 17,8 C 12,8 C 75 % 1016,1 hPa 0,0 l/m 2 min 0 min 456 W/m 22,5 km/h (4 Bft) 93,62 %
28.10.2021 14:16 16,1 C 17,2 C 12,8 C 75 % 1016,0 hPa 0,0 l/m 2 min 0 min 454 W/m 12,9 km/h (3 Bft) 95,74 %
28.10.2021 14:18 16,1 C 17,2 C 12,8 C 76 % 1016,0 hPa 0,0 l/m 2 min 0 min 450 W/m 9,7 km/h (2 Bft) 93,62 %
28.10.2021 14:20 16,3 C 17,2 C 13,4 C 75 % 1015,9 hPa 0,0 l/m 2 min 0 min 447 W/m 16,1 km/h (3 Bft) 95,65 %
28.10.2021 14:22 16,3 C 16,1 C 13,4 C 74 % 1015,9 hPa 0,0 l/m 2 min 0 min 446 W/m 12,9 km/h (3 Bft) 95,74 %
28.10.2021 14:24 16,3 C 16,1 C 13,4 C 74 % 1015,9 hPa 0,0 l/m 2 min 0 min 445 W/m 12,9 km/h (3 Bft) 95,74 %
28.10.2021 14:26 16,3 C 16,7 C 13,4 C 74 % 1015,9 hPa 0,0 l/m 2 min 0 min 443 W/m 12,9 km/h (3 Bft) 95,74 %
28.10.2021 14:28 16,4 C 16,1 C 12,8 C 74 % 1015,9 hPa 0,0 l/m 2 min 0 min 443 W/m 19,3 km/h (3 Bft) 97,87 %
28.10.2021 14:30 16,4 C 15,6 C 12,8 C 74 % 1015,8 hPa 0,0 l/m 2 min 0 min 439 W/m 16,1 km/h (3 Bft) 100,00 %
28.10.2021 14:32 16,4 C 15,6 C 12,8 C 73 % 1015,8 hPa 0,0 l/m 2 min 0 min 439 W/m 9,7 km/h (2 Bft) 100,00 %
28.10.2021 14:34 16,4 C 15,6 C 13,4 C 73 % 1015,7 hPa 0,0 l/m 2 min 0 min 434 W/m 16,1 km/h (3 Bft) 100,00 %
28.10.2021 14:36 16,4 C 15,6 C 13,4 C 74 % 1015,7 hPa 0,0 l/m 2 min 0 min 431 W/m 16,1 km/h (3 Bft) 100,00 %
28.10.2021 14:38 16,4 C 15,6 C 13,4 C 73 % 1015,7 hPa 0,0 l/m 2 min 0 min 431 W/m 16,1 km/h (3 Bft) 100,00 %
28.10.2021 14:40 16,4 C 16,1 C 13,4 C 73 % 1015,7 hPa 0,0 l/m 2 min 0 min 430 W/m 19,3 km/h (3 Bft) 97,87 %
28.10.2021 14:42 16,5 C 16,7 C 13,4 C 73 % 1015,7 hPa 0,0 l/m 2 min 0 min 428 W/m 12,9 km/h (3 Bft) 100,00 %
28.10.2021 14:44 16,5 C 16,7 C 13,4 C 73 % 1015,7 hPa 0,0 l/m 2 min 0 min 425 W/m 16,1 km/h (3 Bft) 100,00 %
28.10.2021 14:46 16,5 C 16,7 C 13,4 C 73 % 1015,7 hPa 0,0 l/m 2 min 0 min 422 W/m 12,9 km/h (3 Bft) 100,00 %
28.10.2021 14:48 16,5 C 16,1 C 13,4 C 73 % 1015,8 hPa 0,0 l/m 2 min 0 min 417 W/m 19,3 km/h (3 Bft) 100,00 %
28.10.2021 14:50 16,5 C 16,1 C 13,4 C 72 % 1015,8 hPa 0,0 l/m 2 min 0 min 416 W/m 19,3 km/h (3 Bft) 100,00 %
28.10.2021 14:52 16,6 C 16,1 C 13,4 C 72 % 1015,7 hPa 0,0 l/m 2 min 0 min 413 W/m 19,3 km/h (3 Bft) 100,00 %
28.10.2021 14:54 16,6 C 16,1 C 13,4 C 72 % 1015,7 hPa 0,0 l/m 2 min 0 min 410 W/m 12,9 km/h (3 Bft) 100,00 %
28.10.2021 14:56 16,6 C 16,7 C 13,4 C 72 % 1015,8 hPa 0,0 l/m 2 min 0 min 408 W/m 12,9 km/h (3 Bft) 100,00 %
28.10.2021 14:58 16,7 C 16,7 C 13,4 C 72 % 1015,7 hPa 0,0 l/m 2 min 0 min 404 W/m 22,5 km/h (4 Bft) 100,00 %
28.10.2021 15:00 16,8 C 16,7 C 13,4 C 73 % 1015,6 hPa 0,0 l/m 2 min 0 min 401 W/m 9,7 km/h (2 Bft) 100,00 %
28.10.2021 15:02 16,8 C 16,7 C 13,4 C 72 % 1015,6 hPa 0,0 l/m 2 min 0 min 397 W/m 12,9 km/h (3 Bft) 100,00 %
28.10.2021 15:04 16,9 C 16,7 C 13,4 C 72 % 1015,7 hPa 0,0 l/m 2 min 0 min 395 W/m 12,9 km/h (3 Bft) 100,00 %
28.10.2021 15:06 16,9 C 16,7 C 13,4 C 72 % 1015,6 hPa 0,0 l/m 2 min 0 min 391 W/m 12,9 km/h (3 Bft) 100,00 %
28.10.2021 15:08 16,9 C 16,7 C 13,4 C 72 % 1015,6 hPa 0,0 l/m 2 min 0 min 388 W/m 6,4 km/h (2 Bft) 100,00 %
28.10.2021 15:10 17,0 C 16,7 C 13,4 C 72 % 1015,6 hPa 0,0 l/m 2 min 0 min 384 W/m 25,7 km/h (4 Bft) 100,00 %
28.10.2021 15:12 16,9 C 16,7 C 13,4 C 71 % 1015,6 hPa 0,0 l/m 2 min 0 min 380 W/m 22,5 km/h (4 Bft) 100,00 %
28.10.2021 15:14 16,9 C 17,2 C 13,4 C 71 % 1015,5 hPa 0,0 l/m 2 min 0 min 378 W/m 12,9 km/h (3 Bft) 100,00 %
28.10.2021 15:16 16,8 C 16,7 C 13,4 C 71 % 1015,5 hPa 0,0 l/m 2 min 0 min 375 W/m 12,9 km/h (3 Bft) 100,00 %
28.10.2021 15:18 16,8 C 16,7 C 13,4 C 71 % 1015,4 hPa 0,0 l/m 2 min 0 min 372 W/m 19,3 km/h (3 Bft) 100,00 %
28.10.2021 15:20 16,7 C 16,1 C 13,4 C 72 % 1015,4 hPa 0,0 l/m 2 min 0 min 368 W/m 19,3 km/h (3 Bft) 100,00 %
28.10.2021 15:22 16,6 C 16,1 C 13,4 C 72 % 1015,4 hPa 0,0 l/m 2 min 0 min 365 W/m 22,5 km/h (4 Bft) 100,00 %
28.10.2021 15:24 16,6 C 16,1 C 13,4 C 72 % 1015,4 hPa 0,0 l/m 2 min 0 min 361 W/m 19,3 km/h (3 Bft) 100,00 %
28.10.2021 15:26 16,5 C 16,1 C 13,4 C 72 % 1015,3 hPa 0,0 l/m 2 min 0 min 356 W/m 16,1 km/h (3 Bft) 100,00 %
28.10.2021 15:28 16,5 C 16,1 C 13,4 C 72 % 1015,2 hPa 0,0 l/m 2 min 0 min 353 W/m 16,1 km/h (3 Bft) 100,00 %
28.10.2021 15:30 16,5 C 16,1 C 13,4 C 73 % 1015,2 hPa 0,0 l/m 2 min 0 min 351 W/m 12,9 km/h (3 Bft) 100,00 %
28.10.2021 15:32 16,4 C 16,1 C 13,4 C 73 % 1015,2 hPa 0,0 l/m 2 min 0 min 346 W/m 19,3 km/h (3 Bft) 97,87 %
28.10.2021 15:34 16,4 C 16,1 C 13,4 C 73 % 1015,2 hPa 0,0 l/m 2 min 0 min 342 W/m 12,9 km/h (3 Bft) 100,00 %
28.10.2021 15:36 16,4 C 16,1 C 13,4 C 73 % 1015,1 hPa 0,0 l/m 2 min 0 min 339 W/m 16,1 km/h (3 Bft) 100,00 %
28.10.2021 15:38 16,4 C 16,1 C 13,4 C 73 % 1015,1 hPa 0,0 l/m 2 min 0 min 333 W/m 12,9 km/h (3 Bft) 100,00 %
28.10.2021 15:40 16,4 C 16,1 C 13,4 C 73 % 1015,1 hPa 0,0 l/m 2 min 0 min 331 W/m 16,1 km/h (3 Bft) 97,14 %
28.10.2021 15:42 16,4 C 16,1 C 13,4 C 74 % 1015,1 hPa 0,0 l/m 2 min 0 min 330 W/m 12,9 km/h (3 Bft) 100,00 %
28.10.2021 15:44 16,4 C 16,1 C 13,4 C 74 % 1015,1 hPa 0,0 l/m 2 min 0 min 326 W/m 16,1 km/h (3 Bft) 100,00 %
28.10.2021 15:46 16,4 C 16,1 C 13,4 C 74 % 1015,0 hPa 0,0 l/m 2 min 0 min 322 W/m 16,1 km/h (3 Bft) 100,00 %
28.10.2021 15:48 16,4 C 16,1 C 13,4 C 74 % 1015,0 hPa 0,0 l/m 2 min 0 min 319 W/m 12,9 km/h (3 Bft) 100,00 %
28.10.2021 15:50 16,4 C 15,6 C 13,4 C 74 % 1015,0 hPa 0,0 l/m 2 min 0 min 315 W/m 12,9 km/h (3 Bft) 97,87 %
28.10.2021 15:52 16,3 C 16,1 C 13,4 C 74 % 1015,0 hPa 0,0 l/m 2 min 0 min 311 W/m 12,9 km/h (3 Bft) 95,74 %
28.10.2021 15:54 16,3 C 15,6 C 12,8 C 74 % 1015,0 hPa 0,0 l/m 2 min 0 min 306 W/m 12,9 km/h (3 Bft) 97,87 %
28.10.2021 15:56 16,3 C 15,6 C 12,8 C 74 % 1014,9 hPa 0,0 l/m 2 min 0 min 302 W/m 16,1 km/h (3 Bft) 97,87 %
28.10.2021 15:58 16,3 C 16,1 C 12,8 C 74 % 1014,9 hPa 0,0 l/m 2 min 0 min 297 W/m 12,9 km/h (3 Bft) 97,83 %
28.10.2021 16:00 16,3 C 16,1 C 12,8 C 74 % 1014,8 hPa 0,0 l/m 2 min 0 min 294 W/m 6,4 km/h (2 Bft) 97,87 %
28.10.2021 16:02 16,3 C 16,1 C 12,8 C 74 % 1014,7 hPa 0,0 l/m 2 min 0 min 288 W/m 19,3 km/h (3 Bft) 97,87 %
28.10.2021 16:04 16,2 C 15,6 C 12,8 C 74 % 1014,8 hPa 0,0 l/m 2 min 0 min 281 W/m 19,3 km/h (3 Bft) 97,87 %
28.10.2021 16:06 16,2 C 16,1 C 12,8 C 74 % 1014,8 hPa 0,0 l/m 2 min 0 min 275 W/m 12,9 km/h (3 Bft) 96,55 %
28.10.2021 16:08 16,2 C 16,1 C 12,8 C 74 % 1014,8 hPa 0,0 l/m 2 min 0 min 270 W/m 19,3 km/h (3 Bft) 97,87 %
28.10.2021 16:10 16,2 C 16,1 C 12,8 C 74 % 1014,8 hPa 0,0 l/m 2 min 0 min 265 W/m 19,3 km/h (3 Bft) 97,14 %
28.10.2021 16:12 16,1 C 16,1 C 12,8 C 74 % 1014,7 hPa 0,0 l/m 2 min 0 min 261 W/m 16,1 km/h (3 Bft) 97,87 %
28.10.2021 16:14 16,1 C 15,6 C 12,8 C 74 % 1014,7 hPa 0,0 l/m 2 min 0 min 255 W/m 16,1 km/h (3 Bft) 97,87 %
28.10.2021 16:16 16,1 C 15,6 C 12,8 C 74 % 1014,6 hPa 0,0 l/m 2 min 0 min 250 W/m 22,5 km/h (4 Bft) 95,74 %
28.10.2021 16:18 16,1 C 15,6 C 12,8 C 74 % 1014,5 hPa 0,0 l/m 2 min 0 min 246 W/m 16,1 km/h (3 Bft) 97,87 %
28.10.2021 16:20 16,0 C 15,6 C 12,8 C 74 % 1014,6 hPa 0,0 l/m 2 min 0 min 236 W/m 6,4 km/h (2 Bft) 95,65 %
28.10.2021 16:22 16,0 C 15,6 C 12,8 C 75 % 1014,5 hPa 0,0 l/m 2 min 0 min 171 W/m 12,9 km/h (3 Bft) 97,87 %
28.10.2021 16:24 16,0 C 15,6 C 12,8 C 75 % 1014,5 hPa 0,0 l/m 2 min 0 min 209 W/m 22,5 km/h (4 Bft) 95,74 %
28.10.2021 16:26 16,0 C 15,6 C 12,8 C 75 % 1014,5 hPa 0,0 l/m 2 min 0 min 218 W/m 19,3 km/h (3 Bft) 97,87 %
28.10.2021 16:28 16,0 C 15,0 C 12,8 C 75 % 1014,5 hPa 0,0 l/m 2 min 0 min 212 W/m 19,3 km/h (3 Bft) 100,00 %
28.10.2021 16:30 15,9 C 15,0 C 12,8 C 74 % 1014,5 hPa 0,0 l/m 2 min 0 min 207 W/m 12,9 km/h (3 Bft) 95,74 %
28.10.2021 16:32 15,9 C 15,0 C 12,8 C 74 % 1014,6 hPa 0,0 l/m 2 min 0 min 201 W/m 12,9 km/h (3 Bft) 100,00 %
28.10.2021 16:34 15,9 C 15,0 C 12,8 C 75 % 1014,6 hPa 0,0 l/m 2 min 0 min 194 W/m 16,1 km/h (3 Bft) 97,87 %
28.10.2021 16:36 15,9 C 15,0 C 12,8 C 75 % 1014,6 hPa 0,0 l/m 2 min 0 min 172 W/m 16,1 km/h (3 Bft) 98,31 %
28.10.2021 16:38 15,8 C 15,0 C 12,8 C 75 % 1014,6 hPa 0,0 l/m 0 min 0 min 81 W/m 12,9 km/h (3 Bft) 95,74 %
28.10.2021 16:40 15,8 C 15,0 C 12,3 C 75 % 1014,6 hPa 0,0 l/m 0 min 0 min 49 W/m 16,1 km/h (3 Bft) 95,74 %
28.10.2021 16:42 15,8 C 15,0 C 12,3 C 75 % 1014,6 hPa 0,0 l/m 0 min 0 min 44 W/m 16,1 km/h (3 Bft) 93,48 %
28.10.2021 16:44 15,8 C 15,0 C 12,3 C 75 % 1014,6 hPa 0,0 l/m 0 min 0 min 44 W/m 16,1 km/h (3 Bft) 95,74 %
28.10.2021 16:46 15,7 C 15,0 C 12,3 C 75 % 1014,6 hPa 0,0 l/m 0 min 0 min 42 W/m 25,7 km/h (4 Bft) 95,74 %
28.10.2021 16:48 15,7 C 15,0 C 12,3 C 76 % 1014,6 hPa 0,0 l/m 0 min 0 min 40 W/m 19,3 km/h (3 Bft) 93,62 %
28.10.2021 16:50 15,6 C 15,0 C 12,3 C 75 % 1014,7 hPa 0,0 l/m 0 min 0 min 38 W/m 16,1 km/h (3 Bft) 95,74 %
28.10.2021 16:52 15,6 C 15,0 C 12,3 C 76 % 1014,7 hPa 0,0 l/m 0 min 0 min 37 W/m 16,1 km/h (3 Bft) 95,65 %
28.10.2021 16:54 15,5 C 15,0 C 12,3 C 76 % 1014,6 hPa 0,0 l/m 0 min 0 min 37 W/m 16,1 km/h (3 Bft) 95,74 %
28.10.2021 16:56 15,5 C 14,4 C 12,3 C 76 % 1014,6 hPa 0,0 l/m 0 min 0 min 35 W/m 22,5 km/h (4 Bft) 95,74 %
28.10.2021 16:58 15,5 C 14,4 C 12,3 C 76 % 1014,6 hPa 0,0 l/m 0 min 0 min 35 W/m 16,1 km/h (3 Bft) 95,74 %
28.10.2021 17:00 15,4 C 14,4 C 12,3 C 77 % 1014,5 hPa 0,0 l/m 0 min 0 min 34 W/m 6,4 km/h (2 Bft) 95,74 %
28.10.2021 17:02 15,4 C 14,4 C 12,3 C 77 % 1014,5 hPa 0,0 l/m 0 min 0 min 33 W/m 12,9 km/h (3 Bft) 95,92 %
28.10.2021 17:04 15,4 C 14,4 C 12,3 C 77 % 1014,4 hPa 0,0 l/m 0 min 0 min 33 W/m 16,1 km/h (3 Bft) 95,45 %
28.10.2021 17:06 15,3 C 14,4 C 12,3 C 77 % 1014,4 hPa 0,0 l/m 0 min 0 min 32 W/m 6,4 km/h (2 Bft) 95,74 %
28.10.2021 17:08 15,3 C 14,4 C 12,3 C 77 % 1014,4 hPa 0,0 l/m 0 min 0 min 32 W/m 12,9 km/h (3 Bft) 95,74 %
28.10.2021 17:10 15,3 C 14,4 C 12,3 C 78 % 1014,4 hPa 0,0 l/m 0 min 0 min 31 W/m 12,9 km/h (3 Bft) 95,74 %
28.10.2021 17:12 15,2 C 14,4 C 12,3 C 78 % 1014,4 hPa 0,0 l/m 0 min 0 min 30 W/m 12,9 km/h (3 Bft) 95,74 %
28.10.2021 17:14 15,1 C 14,4 C 11,7 C 78 % 1014,4 hPa 0,0 l/m 0 min 0 min 30 W/m 9,7 km/h (2 Bft) 100,00 %
28.10.2021 17:16 15,1 C 14,4 C 12,3 C 78 % 1014,4 hPa 0,0 l/m 0 min 0 min 28 W/m 12,9 km/h (3 Bft) 100,00 %
28.10.2021 17:18 15,0 C 14,4 C 11,7 C 78 % 1014,4 hPa 0,0 l/m 0 min 0 min 28 W/m 12,9 km/h (3 Bft) 100,00 %
28.10.2021 17:20 15,0 C 14,4 C 11,7 C 78 % 1014,5 hPa 0,0 l/m 0 min 0 min 27 W/m 12,9 km/h (3 Bft) 100,00 %
28.10.2021 17:22 15,0 C 14,4 C 11,7 C 79 % 1014,4 hPa 0,0 l/m 0 min 0 min 26 W/m 16,1 km/h (3 Bft) 97,87 %
28.10.2021 17:24 15,0 C 13,9 C 11,7 C 79 % 1014,4 hPa 0,0 l/m 0 min 0 min 26 W/m 6,4 km/h (2 Bft) 97,87 %
28.10.2021 17:26 14,9 C 13,9 C 11,7 C 79 % 1014,4 hPa 0,0 l/m 0 min 0 min 25 W/m 12,9 km/h (3 Bft) 100,00 %
28.10.2021 17:28 14,9 C 13,9 C 11,7 C 79 % 1014,3 hPa 0,0 l/m 0 min 0 min 24 W/m 6,4 km/h (2 Bft) 100,00 %
28.10.2021 17:30 14,9 C 13,9 C 11,7 C 79 % 1014,3 hPa 0,0 l/m 0 min 0 min 23 W/m 9,7 km/h (2 Bft) 100,00 %
28.10.2021 17:32 14,8 C 13,9 C 11,7 C 79 % 1014,3 hPa 0,0 l/m 0 min 0 min 23 W/m 22,5 km/h (4 Bft) 97,87 %
28.10.2021 17:34 14,8 C 13,9 C 11,7 C 79 % 1014,2 hPa 0,0 l/m 0 min 0 min 21 W/m 25,7 km/h (4 Bft) 100,00 %
28.10.2021 17:36 14,8 C 13,9 C 11,7 C 79 % 1014,3 hPa 0,0 l/m 0 min 0 min 21 W/m 16,1 km/h (3 Bft) 100,00 %
28.10.2021 17:38 14,7 C 13,9 C 11,7 C 80 % 1014,2 hPa 0,0 l/m 0 min 0 min 19 W/m 9,7 km/h (2 Bft) 100,00 %
28.10.2021 17:40 14,6 C 13,9 C 11,7 C 80 % 1014,2 hPa 0,0 l/m 0 min 0 min 19 W/m 19,3 km/h (3 Bft) 100,00 %
28.10.2021 17:42 14,6 C 13,9 C 11,7 C 80 % 1014,2 hPa 0,0 l/m 0 min 0 min 18 W/m 16,1 km/h (3 Bft) 100,00 %
28.10.2021 17:44 14,5 C 13,9 C 11,7 C 80 % 1014,1 hPa 0,0 l/m 0 min 0 min 18 W/m 12,9 km/h (3 Bft) 100,00 %
28.10.2021 17:46 14,5 C 13,9 C 11,7 C 80 % 1014,1 hPa 0,0 l/m 0 min 0 min 16 W/m 12,9 km/h (3 Bft) 97,87 %
28.10.2021 17:48 14,5 C 13,3 C 11,1 C 80 % 1014,1 hPa 0,0 l/m 0 min 0 min 16 W/m 19,3 km/h (3 Bft) 100,00 %
28.10.2021 17:50 14,4 C 13,3 C 11,1 C 81 % 1014,2 hPa 0,0 l/m 0 min 0 min 16 W/m 16,1 km/h (3 Bft) 100,00 %
28.10.2021 17:52 14,4 C 13,3 C 11,1 C 81 % 1014,2 hPa 0,0 l/m 0 min 0 min 14 W/m 12,9 km/h (3 Bft) 100,00 %
28.10.2021 17:54 14,3 C 13,3 C 11,1 C 81 % 1014,2 hPa 0,0 l/m 0 min 0 min 14 W/m 9,7 km/h (2 Bft) 100,00 %
28.10.2021 17:56 14,2 C 13,3 C 11,1 C 81 % 1014,2 hPa 0,0 l/m 0 min 0 min 12 W/m 6,4 km/h (2 Bft) 100,00 %
28.10.2021 17:58 14,2 C 13,3 C 11,1 C 81 % 1014,2 hPa 0,0 l/m 0 min 0 min 12 W/m 9,7 km/h (2 Bft) 100,00 %
28.10.2021 18:00 14,2 C 13,3 C 11,1 C 81 % 1014,1 hPa 0,0 l/m 0 min 0 min 11 W/m 16,1 km/h (3 Bft) 100,00 %
28.10.2021 18:02 14,2 C 13,3 C 11,1 C 81 % 1014,2 hPa 0,0 l/m 0 min 0 min 11 W/m 9,7 km/h (2 Bft) 100,00 %
28.10.2021 18:04 14,2 C 13,3 C 11,1 C 82 % 1014,2 hPa 0,0 l/m 0 min 0 min 9 W/m 9,7 km/h (2 Bft) 100,00 %
28.10.2021 18:06 14,1 C 13,3 C 11,1 C 82 % 1014,2 hPa 0,0 l/m 0 min 0 min 9 W/m 16,1 km/h (3 Bft) 100,00 %
28.10.2021 18:08 14,0 C 12,8 C 11,1 C 82 % 1014,2 hPa 0,0 l/m 0 min 0 min 8 W/m 16,1 km/h (3 Bft) 100,00 %
28.10.2021 18:10 14,0 C 12,8 C 11,1 C 82 % 1014,2 hPa 0,0 l/m 0 min 0 min 7 W/m 12,9 km/h (3 Bft) 97,87 %
28.10.2021 18:12 13,9 C 12,8 C 11,1 C 82 % 1014,2 hPa 0,0 l/m 0 min 0 min 6 W/m 12,9 km/h (3 Bft) 100,00 %
28.10.2021 18:14 13,9 C 12,8 C 10,6 C 82 % 1014,1 hPa 0,0 l/m 0 min 0 min 5 W/m 9,7 km/h (2 Bft) 100,00 %
28.10.2021 18:16 13,8 C 12,8 C 10,6 C 83 % 1014,2 hPa 0,0 l/m 0 min 0 min 5 W/m 6,4 km/h (2 Bft) 97,87 %
28.10.2021 18:18 13,7 C 12,8 C 10,6 C 83 % 1014,2 hPa 0,0 l/m 0 min 0 min 0 W/m 9,7 km/h (2 Bft) 100,00 %
28.10.2021 18:20 13,6 C 12,8 C 10,6 C 83 % 1014,2 hPa 0,0 l/m 0 min 0 min 0 W/m 6,4 km/h (2 Bft) 100,00 %
28.10.2021 18:22 13,6 C 12,8 C 10,6 C 83 % 1014,2 hPa 0,0 l/m 0 min 0 min 0 W/m 16,1 km/h (3 Bft) 100,00 %
28.10.2021 18:24 13,5 C 12,8 C 10,6 C 83 % 1014,2 hPa 0,0 l/m 0 min 0 min 0 W/m 19,3 km/h (3 Bft) 100,00 %
28.10.2021 18:26 13,5 C 12,8 C 10,6 C 83 % 1014,1 hPa 0,0 l/m 0 min 0 min 0 W/m 12,9 km/h (3 Bft) 95,74 %
28.10.2021 18:28 13,4 C 12,2 C 10,6 C 84 % 1014,1 hPa 0,0 l/m 0 min 0 min 0 W/m 12,9 km/h (3 Bft) 97,87 %
28.10.2021 18:30 13,4 C 12,2 C 10,6 C 83 % 1014,1 hPa 0,0 l/m 0 min 0 min 0 W/m 12,9 km/h (3 Bft) 95,74 %
28.10.2021 18:32 13,4 C 12,2 C 10,6 C 84 % 1014,1 hPa 0,0 l/m 0 min 0 min 0 W/m 12,9 km/h (3 Bft) 93,62 %
28.10.2021 18:34 13,3 C 12,2 C 10,6 C 84 % 1014,1 hPa 0,0 l/m 0 min 0 min 0 W/m 12,9 km/h (3 Bft) 97,83 %
28.10.2021 18:36 13,3 C 12,2 C 10,6 C 84 % 1014,2 hPa 0,0 l/m 0 min 0 min 0 W/m 16,1 km/h (3 Bft) 97,87 %
28.10.2021 18:38 13,2 C 12,2 C 10,6 C 84 % 1014,2 hPa 0,0 l/m 0 min 0 min 0 W/m 6,4 km/h (2 Bft) 95,74 %
28.10.2021 18:40 13,1 C 12,2 C 10,6 C 84 % 1014,2 hPa 0,0 l/m 0 min 0 min 0 W/m 6,4 km/h (2 Bft) 93,62 %
28.10.2021 18:42 13,1 C 12,2 C 10,6 C 84 % 1014,1 hPa 0,0 l/m 0 min 0 min 0 W/m 12,9 km/h (3 Bft) 93,62 %
28.10.2021 18:44 13,0 C 12,2 C 10,6 C 84 % 1014,1 hPa 0,0 l/m 0 min 0 min 0 W/m 6,4 km/h (2 Bft) 91,30 %
28.10.2021 18:46 13,0 C 12,2 C 10,0 C 85 % 1014,1 hPa 0,0 l/m 0 min 0 min 0 W/m 16,1 km/h (3 Bft) 93,62 %
28.10.2021 18:48 13,0 C 12,2 C 10,0 C 85 % 1014,1 hPa 0,0 l/m 0 min 0 min 0 W/m 12,9 km/h (3 Bft) 93,62 %
28.10.2021 18:50 12,9 C 12,2 C 10,0 C 85 % 1014,2 hPa 0,0 l/m 0 min 0 min 0 W/m 12,9 km/h (3 Bft) 91,49 %
28.10.2021 18:52 12,9 C 12,2 C 10,0 C 85 % 1014,2 hPa 0,0 l/m 0 min 0 min 0 W/m 9,7 km/h (2 Bft) 93,62 %
28.10.2021 18:54 12,8 C 11,7 C 10,0 C 85 % 1014,2 hPa 0,0 l/m 0 min 0 min 0 W/m 12,9 km/h (3 Bft) 93,62 %
28.10.2021 18:56 12,8 C 11,7 C 10,0 C 85 % 1014,2 hPa 0,0 l/m 0 min 0 min 0 W/m 12,9 km/h (3 Bft) 93,48 %
28.10.2021 18:58 12,8 C 11,7 C 10,0 C 85 % 1014,2 hPa 0,0 l/m 0 min 0 min 0 W/m 22,5 km/h (4 Bft) 93,62 %
28.10.2021 19:00 12,7 C 11,7 C 10,0 C 85 % 1014,2 hPa 0,0 l/m 0 min 0 min 0 W/m 12,9 km/h (3 Bft) 89,36 %
28.10.2021 19:02 12,6 C 11,7 C 10,0 C 86 % 1014,2 hPa 0,0 l/m 0 min 0 min 0 W/m 16,1 km/h (3 Bft) 92,45 %
28.10.2021 19:04 12,6 C 11,7 C 10,0 C 86 % 1014,2 hPa 0,0 l/m 0 min 0 min 0 W/m 12,9 km/h (3 Bft) 93,62 %
28.10.2021 19:06 12,6 C 11,7 C 10,0 C 86 % 1014,2 hPa 0,0 l/m 0 min 0 min 0 W/m 16,1 km/h (3 Bft) 93,62 %
28.10.2021 19:08 12,5 C 11,7 C 10,0 C 86 % 1014,2 hPa 0,0 l/m 0 min 0 min 0 W/m 16,1 km/h (3 Bft) 93,48 %
28.10.2021 19:10 12,5 C 11,7 C 10,0 C 86 % 1014,2 hPa 0,0 l/m 0 min 0 min 0 W/m 12,9 km/h (3 Bft) 95,74 %
28.10.2021 19:12 12,5 C 11,7 C 10,0 C 86 % 1014,1 hPa 0,0 l/m 0 min 0 min 0 W/m 19,3 km/h (3 Bft) 95,74 %
28.10.2021 19:14 12,4 C 11,7 C 10,0 C 86 % 1014,2 hPa 0,0 l/m 0 min 0 min 0 W/m 12,9 km/h (3 Bft) 93,62 %
28.10.2021 19:16 12,4 C 11,7 C 10,0 C 86 % 1014,1 hPa 0,0 l/m 0 min 0 min 0 W/m 12,9 km/h (3 Bft) 97,87 %
28.10.2021 19:18 12,4 C 11,7 C 10,0 C 86 % 1014,1 hPa 0,0 l/m 0 min 0 min 0 W/m 29,0 km/h (5 Bft) 95,74 %
28.10.2021 19:20 12,3 C 11,7 C 10,0 C 86 % 1014,0 hPa 0,0 l/m 0 min 0 min 0 W/m 22,5 km/h (4 Bft) 97,83 %
28.10.2021 19:22 12,3 C 11,7 C 10,0 C 87 % 1014,0 hPa 0,0 l/m 0 min 0 min 0 W/m 9,7 km/h (2 Bft) 95,74 %
28.10.2021 19:24 12,3 C 11,7 C 10,0 C 87 % 1014,1 hPa 0,0 l/m 0 min 0 min 0 W/m 16,1 km/h (3 Bft) 100,00 %
28.10.2021 19:26 12,3 C 11,7 C 9,5 C 87 % 1014,1 hPa 0,0 l/m 0 min 0 min 0 W/m 12,9 km/h (3 Bft) 97,87 %
28.10.2021 19:28 12,2 C 11,7 C 9,5 C 86 % 1014,1 hPa 0,0 l/m 0 min 0 min 0 W/m 19,3 km/h (3 Bft) 100,00 %
28.10.2021 19:30 12,1 C 11,1 C 9,5 C 86 % 1014,1 hPa 0,0 l/m 0 min 0 min 0 W/m 12,9 km/h (3 Bft) 97,87 %
28.10.2021 19:32 12,1 C 11,1 C 9,5 C 87 % 1014,2 hPa 0,0 l/m 0 min 0 min 0 W/m 19,3 km/h (3 Bft) 100,00 %
28.10.2021 19:34 12,1 C 11,1 C 9,5 C 87 % 1014,2 hPa 0,0 l/m 0 min 0 min 0 W/m 19,3 km/h (3 Bft) 100,00 %
28.10.2021 19:36 12,1 C 11,1 C 9,5 C 87 % 1014,2 hPa 0,0 l/m 0 min 0 min 0 W/m 16,1 km/h (3 Bft) 100,00 %
28.10.2021 19:38 12,0 C 11,1 C 9,5 C 87 % 1014,2 hPa 0,0 l/m 0 min 0 min 0 W/m 19,3 km/h (3 Bft) 100,00 %
28.10.2021 19:40 12,0 C 11,1 C 9,5 C 87 % 1014,2 hPa 0,0 l/m 0 min 0 min 0 W/m 19,3 km/h (3 Bft) 100,00 %
28.10.2021 19:42 12,0 C 11,1 C 9,5 C 87 % 1014,3 hPa 0,0 l/m 0 min 0 min 0 W/m 16,1 km/h (3 Bft) 100,00 %
28.10.2021 19:44 11,9 C 11,1 C 9,5 C 87 % 1014,3 hPa 0,0 l/m 0 min 0 min 0 W/m 16,1 km/h (3 Bft) 100,00 %
28.10.2021 19:46 11,9 C 11,1 C 9,5 C 87 % 1014,2 hPa 0,0 l/m 0 min 0 min 0 W/m 16,1 km/h (3 Bft) 97,87 %
28.10.2021 19:48 11,8 C 11,1 C 9,5 C 87 % 1014,3 hPa 0,0 l/m 0 min 0 min 0 W/m 12,9 km/h (3 Bft) 100,00 %
28.10.2021 19:50 11,8 C 11,1 C 9,5 C 87 % 1014,3 hPa 0,0 l/m 0 min 0 min 0 W/m 25,7 km/h (4 Bft) 100,00 %
28.10.2021 19:52 11,8 C 11,1 C 9,5 C 87 % 1014,2 hPa 0,0 l/m 0 min 0 min 0 W/m 16,1 km/h (3 Bft) 100,00 %
28.10.2021 19:54 11,7 C 11,1 C 9,5 C 87 % 1014,2 hPa 0,0 l/m 0 min 0 min 0 W/m 16,1 km/h (3 Bft) 100,00 %
28.10.2021 19:56 11,6 C 11,1 C 9,5 C 88 % 1014,2 hPa 0,0 l/m 0 min 0 min 0 W/m 32,2 km/h (5 Bft) 100,00 %
28.10.2021 19:58 11,6 C 10,6 C 9,5 C 88 % 1014,2 hPa 0,0 l/m 0 min 0 min 0 W/m 19,3 km/h (3 Bft) 100,00 %
28.10.2021 20:00 11,6 C 10,6 C 9,5 C 88 % 1014,1 hPa 0,0 l/m 0 min 0 min 0 W/m 6,4 km/h (2 Bft) 100,00 %
28.10.2021 20:02 11,5 C 10,6 C 8,9 C 88 % 1014,1 hPa 0,0 l/m 0 min 0 min 0 W/m 9,7 km/h (2 Bft) 100,00 %
28.10.2021 20:04 11,5 C 10,6 C 8,9 C 88 % 1014,1 hPa 0,0 l/m 0 min 0 min 0 W/m 16,1 km/h (3 Bft) 100,00 %
28.10.2021 20:06 11,5 C 10,6 C 8,9 C 88 % 1014,1 hPa 0,0 l/m 0 min 0 min 0 W/m 12,9 km/h (3 Bft) 100,00 %
28.10.2021 20:08 11,4 C 10,6 C 8,9 C 88 % 1014,1 hPa 0,0 l/m 0 min 0 min 0 W/m 19,3 km/h (3 Bft) 100,00 %
28.10.2021 20:10 11,4 C 10,6 C 8,9 C 88 % 1014,1 hPa 0,0 l/m 0 min 0 min 0 W/m 12,9 km/h (3 Bft) 100,00 %
28.10.2021 20:12 11,3 C 10,6 C 8,9 C 88 % 1014,1 hPa 0,0 l/m 0 min 0 min 0 W/m 12,9 km/h (3 Bft) 100,00 %
28.10.2021 20:14 11,3 C 10,6 C 8,9 C 88 % 1014,1 hPa 0,0 l/m 0 min 0 min 0 W/m 12,9 km/h (3 Bft) 100,00 %
28.10.2021 20:16 11,3 C 10,6 C 8,9 C 88 % 1014,1 hPa 0,0 l/m 0 min 0 min 0 W/m 19,3 km/h (3 Bft) 100,00 %
28.10.2021 20:18 11,2 C 10,6 C 8,9 C 88 % 1014,1 hPa 0,0 l/m 0 min 0 min 0 W/m 12,9 km/h (3 Bft) 100,00 %
28.10.2021 20:20 11,1 C 10,6 C 8,9 C 88 % 1014,2 hPa 0,0 l/m 0 min 0 min 0 W/m 12,9 km/h (3 Bft) 100,00 %
28.10.2021 20:22 11,1 C 10,6 C 8,9 C 88 % 1014,2 hPa 0,0 l/m 0 min 0 min 0 W/m 12,9 km/h (3 Bft) 100,00 %
28.10.2021 20:24 11,1 C 10,6 C 8,9 C 89 % 1014,2 hPa 0,0 l/m 0 min 0 min 0 W/m 19,3 km/h (3 Bft) 97,87 %
28.10.2021 20:26 11,1 C 10,6 C 8,9 C 89 % 1014,2 hPa 0,0 l/m 0 min 0 min 0 W/m 16,1 km/h (3 Bft) 97,87 %
28.10.2021 20:28 11,0 C 10,0 C 8,9 C 89 % 1014,1 hPa 0,0 l/m 0 min 0 min 0 W/m 16,1 km/h (3 Bft) 97,87 %
28.10.2021 20:30 11,0 C 10,0 C 8,9 C 89 % 1014,1 hPa 0,0 l/m 0 min 0 min 0 W/m 19,3 km/h (3 Bft) 97,87 %
28.10.2021 20:32 11,0 C 10,0 C 8,9 C 89 % 1014,0 hPa 0,0 l/m 0 min 0 min 0 W/m 19,3 km/h (3 Bft) 97,83 %
28.10.2021 20:34 11,0 C 10,0 C 8,9 C 89 % 1014,0 hPa 0,0 l/m 0 min 0 min 0 W/m 19,3 km/h (3 Bft) 97,87 %
28.10.2021 20:36 10,9 C 10,0 C 8,9 C 89 % 1014,0 hPa 0,0 l/m 0 min 0 min 0 W/m 16,1 km/h (3 Bft) 97,87 %
28.10.2021 20:38 10,9 C 10,0 C 8,9 C 89 % 1014,0 hPa 0,0 l/m 0 min 0 min 0 W/m 16,1 km/h (3 Bft) 97,87 %
28.10.2021 20:40 10,9 C 10,0 C 8,9 C 89 % 1014,0 hPa 0,0 l/m 0 min 0 min 0 W/m 16,1 km/h (3 Bft) 97,87 %
28.10.2021 20:42 10,8 C 10,0 C 8,9 C 89 % 1014,0 hPa 0,0 l/m 0 min 0 min 0 W/m 16,1 km/h (3 Bft) 95,65 %
28.10.2021 20:44 10,8 C 10,0 C 8,9 C 89 % 1014,0 hPa 0,0 l/m 0 min 0 min 0 W/m 16,1 km/h (3 Bft) 97,87 %
28.10.2021 20:46 10,8 C 10,0 C 8,4 C 89 % 1014,0 hPa 0,0 l/m 0 min 0 min 0 W/m 16,1 km/h (3 Bft) 97,87 %
28.10.2021 20:48 10,7 C 10,0 C 8,4 C 89 % 1013,9 hPa 0,0 l/m 0 min 0 min 0 W/m 16,1 km/h (3 Bft) 97,87 %
28.10.2021 20:50 10,7 C 10,0 C 8,4 C 89 % 1014,0 hPa 0,0 l/m 0 min 0 min 0 W/m 16,1 km/h (3 Bft) 97,87 %
28.10.2021 20:52 10,6 C 10,0 C 8,4 C 89 % 1014,0 hPa 0,0 l/m 0 min 0 min 0 W/m 16,1 km/h (3 Bft) 94,23 %
28.10.2021 20:54 10,6 C 10,0 C 8,4 C 89 % 1013,9 hPa 0,0 l/m 0 min 0 min 0 W/m 16,1 km/h (3 Bft) 97,87 %
28.10.2021 20:56 10,6 C 10,0 C 8,4 C 89 % 1013,8 hPa 0,0 l/m 0 min 0 min 0 W/m 16,1 km/h (3 Bft) 93,62 %
28.10.2021 20:58 10,5 C 10,0 C 8,4 C 89 % 1013,9 hPa 0,0 l/m 0 min 0 min 0 W/m 12,9 km/h (3 Bft) 97,87 %
28.10.2021 21:00 10,5 C 10,0 C 8,4 C 90 % 1013,9 hPa 0,0 l/m 0 min 0 min 0 W/m 12,9 km/h (3 Bft) 100,00 %
28.10.2021 21:02 10,5 C 9,4 C 8,4 C 90 % 1013,9 hPa 0,0 l/m 0 min 0 min 0 W/m 12,9 km/h (3 Bft) 97,83 %
28.10.2021 21:04 10,4 C 9,4 C 8,4 C 90 % 1013,9 hPa 0,0 l/m 0 min 0 min 0 W/m 12,9 km/h (3 Bft) 100,00 %
28.10.2021 21:06 10,4 C 9,4 C 8,4 C 90 % 1013,8 hPa 0,0 l/m 0 min 0 min 0 W/m 19,3 km/h (3 Bft) 97,87 %
28.10.2021 21:08 10,4 C 9,4 C 8,4 C 90 % 1013,7 hPa 0,0 l/m 0 min 0 min 0 W/m 6,4 km/h (2 Bft) 97,87 %
28.10.2021 21:10 10,4 C 9,4 C 8,4 C 90 % 1013,8 hPa 0,0 l/m 0 min 0 min 0 W/m 12,9 km/h (3 Bft) 97,87 %
28.10.2021 21:12 10,3 C 9,4 C 8,4 C 90 % 1013,8 hPa 0,0 l/m 0 min 0 min 0 W/m 12,9 km/h (3 Bft) 95,74 %
28.10.2021 21:14 10,3 C 9,4 C 8,4 C 90 % 1013,8 hPa 0,0 l/m 0 min 0 min 0 W/m 22,5 km/h (4 Bft) 97,83 %
28.10.2021 21:16 10,3 C 9,4 C 8,4 C 90 % 1013,7 hPa 0,0 l/m 0 min 0 min 0 W/m 19,3 km/h (3 Bft) 97,87 %
28.10.2021 21:18 10,3 C 9,4 C 8,4 C 90 % 1013,6 hPa 0,0 l/m 0 min 0 min 0 W/m 16,1 km/h (3 Bft) 97,87 %
28.10.2021 21:20 10,2 C 9,4 C 8,4 C 90 % 1013,6 hPa 0,0 l/m 0 min 0 min 0 W/m 16,1 km/h (3 Bft) 95,74 %
28.10.2021 21:22 10,2 C 9,4 C 8,4 C 90 % 1013,6 hPa 0,0 l/m 0 min 0 min 0 W/m 16,1 km/h (3 Bft) 97,87 %
28.10.2021 21:24 10,1 C 9,4 C 8,4 C 90 % 1013,6 hPa 0,0 l/m 0 min 0 min 0 W/m 16,1 km/h (3 Bft) 97,83 %
28.10.2021 21:26 10,1 C 9,4 C 8,4 C 90 % 1013,5 hPa 0,0 l/m 0 min 0 min 0 W/m 16,1 km/h (3 Bft) 97,87 %
28.10.2021 21:28 10,1 C 9,4 C 8,4 C 90 % 1013,6 hPa 0,0 l/m 0 min 0 min 0 W/m 19,3 km/h (3 Bft) 97,87 %
28.10.2021 21:30 10,0 C 9,4 C 8,4 C 90 % 1013,6 hPa 0,0 l/m 0 min 0 min 0 W/m 12,9 km/h (3 Bft) 95,74 %
28.10.2021 21:32 10,0 C 9,4 C 8,4 C 90 % 1013,6 hPa 0,0 l/m 0 min 0 min 0 W/m 12,9 km/h (3 Bft) 93,62 %
28.10.2021 21:34 10,0 C 9,4 C 8,4 C 90 % 1013,6 hPa 0,0 l/m 0 min 0 min 0 W/m 16,1 km/h (3 Bft) 95,74 %
28.10.2021 21:36 10,0 C 9,4 C 8,4 C 90 % 1013,6 hPa 0,0 l/m 0 min 0 min 0 W/m 9,7 km/h (2 Bft) 95,65 %
28.10.2021 21:38 10,0 C 9,4 C 7,8 C 90 % 1013,6 hPa 0,0 l/m 0 min 0 min 0 W/m 12,9 km/h (3 Bft) 93,62 %
28.10.2021 21:40 9,9 C 9,4 C 7,8 C 91 % 1013,6 hPa 0,0 l/m 0 min 0 min 0 W/m 16,1 km/h (3 Bft) 93,62 %
28.10.2021 21:42 9,9 C 9,4 C 7,8 C 91 % 1013,6 hPa 0,0 l/m 0 min 0 min 0 W/m 12,9 km/h (3 Bft) 95,74 %
28.10.2021 21:44 9,9 C 9,4 C 7,8 C 91 % 1013,6 hPa 0,0 l/m 0 min 0 min 0 W/m 9,7 km/h (2 Bft) 93,62 %
28.10.2021 21:46 9,9 C 8,9 C 7,8 C 91 % 1013,6 hPa 0,0 l/m 0 min 0 min 0 W/m 12,9 km/h (3 Bft) 95,74 %
28.10.2021 21:48 9,8 C 8,9 C 7,8 C 91 % 1013,5 hPa 0,0 l/m 0 min 0 min 0 W/m 12,9 km/h (3 Bft) 97,83 %
28.10.2021 21:50 9,8 C 8,9 C 7,8 C 91 % 1013,6 hPa 0,0 l/m 0 min 0 min 0 W/m 16,1 km/h (3 Bft) 95,74 %
28.10.2021 21:52 9,8 C 8,9 C 7,8 C 91 % 1013,6 hPa 0,0 l/m 0 min 0 min 0 W/m 6,4 km/h (2 Bft) 93,62 %
28.10.2021 21:54 9,8 C 8,9 C 7,8 C 91 % 1013,6 hPa 0,0 l/m 0 min 0 min 0 W/m 9,7 km/h (2 Bft) 97,87 %
28.10.2021 21:56 9,7 C 8,9 C 7,8 C 91 % 1013,5 hPa 0,0 l/m 0 min 0 min 0 W/m 6,4 km/h (2 Bft) 97,87 %
28.10.2021 21:58 9,7 C 8,9 C 7,8 C 91 % 1013,5 hPa 0,0 l/m 0 min 0 min 0 W/m 9,7 km/h (2 Bft) 97,87 %
28.10.2021 22:00 9,6 C 8,9 C 7,8 C 91 % 1013,5 hPa 0,0 l/m 0 min 0 min 0 W/m 16,1 km/h (3 Bft) 97,83 %
28.10.2021 22:02 9,6 C 8,9 C 7,8 C 91 % 1013,5 hPa 0,0 l/m 0 min 0 min 0 W/m 16,1 km/h (3 Bft) 93,62 %
28.10.2021 22:04 9,6 C 8,9 C 7,8 C 91 % 1013,5 hPa 0,0 l/m 0 min 0 min 0 W/m 12,9 km/h (3 Bft) 97,87 %
28.10.2021 22:06 9,5 C 8,9 C 7,8 C 91 % 1013,4 hPa 0,0 l/m 0 min 0 min 0 W/m 9,7 km/h (2 Bft) 95,74 %
28.10.2021 22:08 9,5 C 8,9 C 7,8 C 91 % 1013,4 hPa 0,0 l/m 0 min 0 min 0 W/m 19,3 km/h (3 Bft) 95,74 %
28.10.2021 22:10 9,5 C 8,9 C 7,8 C 91 % 1013,4 hPa 0,0 l/m 0 min 0 min 0 W/m 22,5 km/h (4 Bft) 100,00 %
28.10.2021 22:12 9,5 C 8,9 C 7,8 C 91 % 1013,5 hPa 0,0 l/m 0 min 0 min 0 W/m 12,9 km/h (3 Bft) 96,30 %
28.10.2021 22:14 9,5 C 8,9 C 7,8 C 91 % 1013,4 hPa 0,0 l/m 0 min 0 min 0 W/m 6,4 km/h (2 Bft) 98,00 %
28.10.2021 22:16 9,4 C 8,9 C 7,8 C 91 % 1013,4 hPa 0,0 l/m 0 min 0 min 0 W/m 16,1 km/h (3 Bft) 97,83 %
28.10.2021 22:18 9,4 C 8,3 C 7,8 C 91 % 1013,4 hPa 0,0 l/m 0 min 0 min 0 W/m 12,9 km/h (3 Bft) 95,74 %
28.10.2021 22:20 9,4 C 8,3 C 7,8 C 91 % 1013,3 hPa 0,0 l/m 0 min 0 min 0 W/m 6,4 km/h (2 Bft) 93,88 %
28.10.2021 22:22 9,4 C 8,3 C 7,8 C 91 % 1013,3 hPa 0,0 l/m 0 min 0 min 0 W/m 12,9 km/h (3 Bft) 97,87 %
28.10.2021 22:24 9,3 C 8,3 C 7,8 C 91 % 1013,3 hPa 0,0 l/m 0 min 0 min 0 W/m 12,9 km/h (3 Bft) 93,48 %
28.10.2021 22:26 9,3 C 8,3 C 7,8 C 91 % 1013,3 hPa 0,0 l/m 0 min 0 min 0 W/m 12,9 km/h (3 Bft) 97,87 %
28.10.2021 22:28 9,3 C 8,3 C 7,8 C 92 % 1013,3 hPa 0,0 l/m 0 min 0 min 0 W/m 9,7 km/h (2 Bft) 95,74 %
28.10.2021 22:30 9,3 C 8,3 C 7,8 C 92 % 1013,3 hPa 0,0 l/m 0 min 0 min 0 W/m 16,1 km/h (3 Bft) 95,74 %
28.10.2021 22:32 9,3 C 8,3 C 7,3 C 92 % 1013,3 hPa 0,0 l/m 0 min 0 min 0 W/m 16,1 km/h (3 Bft) 97,87 %
28.10.2021 22:34 9,3 C 8,3 C 7,3 C 92 % 1013,3 hPa 0,0 l/m 0 min 0 min 0 W/m 16,1 km/h (3 Bft) 95,74 %
28.10.2021 22:36 9,2 C 8,3 C 7,3 C 91 % 1013,2 hPa 0,0 l/m 0 min 0 min 0 W/m 9,7 km/h (2 Bft) 95,65 %
28.10.2021 22:38 9,2 C 8,3 C 7,3 C 92 % 1013,3 hPa 0,0 l/m 0 min 0 min 0 W/m 12,9 km/h (3 Bft) 97,87 %
28.10.2021 22:40 9,2 C 8,3 C 7,3 C 92 % 1013,3 hPa 0,0 l/m 0 min 0 min 0 W/m 12,9 km/h (3 Bft) 97,87 %
28.10.2021 22:42 9,2 C 8,3 C 7,3 C 92 % 1013,3 hPa 0,0 l/m 0 min 0 min 0 W/m 19,3 km/h (3 Bft) 97,87 %
28.10.2021 22:44 9,2 C 8,3 C 7,3 C 92 % 1013,3 hPa 0,0 l/m 0 min 0 min 0 W/m 12,9 km/h (3 Bft) 97,87 %
28.10.2021 22:46 9,1 C 8,3 C 7,3 C 92 % 1013,3 hPa 0,0 l/m 0 min 0 min 0 W/m 16,1 km/h (3 Bft) 97,87 %
28.10.2021 22:48 9,1 C 8,3 C 7,3 C 92 % 1013,3 hPa 0,0 l/m 0 min 0 min 0 W/m 12,9 km/h (3 Bft) 97,83 %
28.10.2021 22:50 9,1 C 8,3 C 7,3 C 92 % 1013,2 hPa 0,0 l/m 0 min 0 min 0 W/m 12,9 km/h (3 Bft) 100,00 %
28.10.2021 22:52 9,1 C 8,3 C 7,3 C 92 % 1013,2 hPa 0,0 l/m 0 min 0 min 0 W/m 16,1 km/h (3 Bft) 100,00 %
28.10.2021 22:54 9,1 C 8,3 C 7,3 C 92 % 1013,2 hPa 0,0 l/m 0 min 0 min 0 W/m 12,9 km/h (3 Bft) 100,00 %
28.10.2021 22:56 9,1 C 8,3 C 7,3 C 92 % 1013,1 hPa 0,0 l/m 0 min 0 min 0 W/m 22,5 km/h (4 Bft) 100,00 %
28.10.2021 22:58 9,1 C 8,3 C 7,3 C 92 % 1013,1 hPa 0,0 l/m 0 min 0 min 0 W/m 16,1 km/h (3 Bft) 97,87 %
28.10.2021 23:00 9,1 C 8,3 C 7,3 C 92 % 1013,1 hPa 0,0 l/m 0 min 0 min 0 W/m 19,3 km/h (3 Bft) 100,00 %
28.10.2021 23:02 9,0 C 8,3 C 7,3 C 92 % 1013,1 hPa 0,0 l/m 0 min 0 min 0 W/m 16,1 km/h (3 Bft) 100,00 %
28.10.2021 23:04 9,0 C 8,3 C 7,3 C 92 % 1013,1 hPa 0,0 l/m 0 min 0 min 0 W/m 19,3 km/h (3 Bft) 100,00 %
28.10.2021 23:06 9,0 C 8,3 C 7,3 C 92 % 1013,1 hPa 0,0 l/m 0 min 0 min 0 W/m 16,1 km/h (3 Bft) 100,00 %
28.10.2021 23:08 9,0 C 8,3 C 7,3 C 92 % 1013,1 hPa 0,0 l/m 0 min 0 min 0 W/m 19,3 km/h (3 Bft) 100,00 %
28.10.2021 23:10 9,0 C 8,3 C 7,3 C 92 % 1013,1 hPa 0,0 l/m 0 min 0 min 0 W/m 16,1 km/h (3 Bft) 100,00 %
28.10.2021 23:12 9,0 C 8,3 C 7,3 C 92 % 1013,0 hPa 0,0 l/m 0 min 0 min 0 W/m 12,9 km/h (3 Bft) 100,00 %
28.10.2021 23:14 9,0 C 8,3 C 7,3 C 92 % 1013,0 hPa 0,0 l/m 0 min 0 min 0 W/m 12,9 km/h (3 Bft) 97,14 %
28.10.2021 23:16 9,0 C 8,3 C 7,3 C 92 % 1013,0 hPa 0,0 l/m 0 min 0 min 0 W/m 12,9 km/h (3 Bft) 100,00 %
28.10.2021 23:18 8,9 C 8,3 C 7,3 C 92 % 1013,0 hPa 0,0 l/m 0 min 0 min 0 W/m 22,5 km/h (4 Bft) 100,00 %
28.10.2021 23:20 8,9 C 8,3 C 7,3 C 92 % 1013,0 hPa 0,0 l/m 0 min 0 min 0 W/m 16,1 km/h (3 Bft) 100,00 %
28.10.2021 23:22 8,9 C 8,3 C 7,3 C 92 % 1013,0 hPa 0,0 l/m 0 min 0 min 0 W/m 19,3 km/h (3 Bft) 100,00 %
28.10.2021 23:24 8,9 C 8,3 C 7,3 C 92 % 1013,0 hPa 0,0 l/m 0 min 0 min 0 W/m 16,1 km/h (3 Bft) 97,87 %
28.10.2021 23:26 8,9 C 8,3 C 7,3 C 92 % 1013,0 hPa 0,0 l/m 0 min 0 min 0 W/m 16,1 km/h (3 Bft) 100,00 %
28.10.2021 23:28 8,9 C 8,3 C 7,3 C 92 % 1012,9 hPa 0,0 l/m 0 min 0 min 0 W/m 19,3 km/h (3 Bft) 100,00 %
28.10.2021 23:30 8,9 C 8,3 C 7,3 C 92 % 1012,9 hPa 0,0 l/m 0 min 0 min 0 W/m 12,9 km/h (3 Bft) 100,00 %
28.10.2021 23:32 8,8 C 8,3 C 7,3 C 92 % 1012,9 hPa 0,0 l/m 0 min 0 min 0 W/m 12,9 km/h (3 Bft) 97,87 %
28.10.2021 23:34 8,8 C 8,3 C 7,3 C 92 % 1013,0 hPa 0,0 l/m 0 min 0 min 0 W/m 12,9 km/h (3 Bft) 97,87 %
28.10.2021 23:36 8,8 C 8,3 C 7,3 C 92 % 1012,9 hPa 0,0 l/m 0 min 0 min 0 W/m 12,9 km/h (3 Bft) 95,74 %
28.10.2021 23:38 8,8 C 8,3 C 7,3 C 92 % 1012,8 hPa 0,0 l/m 0 min 0 min 0 W/m 6,4 km/h (2 Bft) 97,83 %
28.10.2021 23:40 8,8 C 8,3 C 7,3 C 92 % 1012,9 hPa 0,0 l/m 0 min 0 min 0 W/m 6,4 km/h (2 Bft) 97,87 %
28.10.2021 23:42 8,8 C 7,8 C 7,3 C 92 % 1012,9 hPa 0,0 l/m 0 min 0 min 0 W/m 6,4 km/h (2 Bft) 97,87 %
28.10.2021 23:44 8,8 C 7,8 C 7,3 C 92 % 1012,9 hPa 0,0 l/m 0 min 0 min 0 W/m 12,9 km/h (3 Bft) 97,87 %
28.10.2021 23:46 8,8 C 7,8 C 7,3 C 92 % 1012,8 hPa 0,0 l/m 0 min 0 min 0 W/m 6,4 km/h (2 Bft) 97,87 %
28.10.2021 23:48 8,7 C 7,8 C 7,3 C 92 % 1012,7 hPa 0,0 l/m 0 min 0 min 0 W/m 16,1 km/h (3 Bft) 97,87 %
28.10.2021 23:50 8,7 C 7,8 C 7,3 C 92 % 1012,7 hPa 0,0 l/m 0 min 0 min 0 W/m 12,9 km/h (3 Bft) 97,83 %
28.10.2021 23:52 8,6 C 7,8 C 7,3 C 92 % 1012,7 hPa 0,0 l/m 0 min 0 min 0 W/m 12,9 km/h (3 Bft) 97,87 %
28.10.2021 23:54 8,6 C 7,8 C 7,3 C 92 % 1012,7 hPa 0,0 l/m 0 min 0 min 0 W/m 16,1 km/h (3 Bft) 97,87 %
28.10.2021 23:56 8,6 C 7,8 C 7,3 C 92 % 1012,7 hPa 0,0 l/m 0 min 0 min 0 W/m 19,3 km/h (3 Bft) 97,87 %
28.10.2021 23:58 8,6 C 7,8 C 7,3 C 92 % 1012,7 hPa 0,0 l/m 0 min 0 min 0 W/m 12,9 km/h (3 Bft) 97,87 %
_ Min-Zeit 05:00 04:36 02:26 15:12 23:48 - - - - 00:02 06:46
Minimum _ 8,0 C 7,2 C 7,3 C 71 % 1012,7 hPa - - - - 3,2 km/h (1 Bft) 63,83 %
_ Max-Zeit 15:10 14:00 14:20 08:36 00:00 03:16 10:20 00:00 13:54 19:56 00:07
Maximum _ 17,0 C 23,3 C 13,4 C 98 % 1022,1 hPa 0,2 l/m 2 min 0 min 467 W/m 32,2 km/h
SO (5 Bft)
100,00 %
Durchschnitt _ 11,0 C 10,8 C 9,3 C 90 % 1017,3 hPa #0,2 l/m #3:46 h #0 min. 162 W/m 12,4 km/h (3 Bft) 97,60 %
© 2021 W. Hausmann